GFSNIL_sfc_wetblb_000.txt.gz
Wetbulb
79.61 77.80 77.39 77.54 75.42 73.88 72.83 72.06 74.24 75.66 73.88 72.94 72.46 71.87 70.88 69.46 69.11 69.89 69.06 69.64 69.98 68.09
79.27 78.54 77.61 78.17 77.70 75.25 75.58 72.53 74.26 74.29 73.16 72.07 72.33 71.13 70.67 68.70 69.04 68.96 69.33 68.96 69.49 69.00
78.22 78.63 78.43 78.38 77.72 76.41 75.96 74.96 73.63 72.98 71.70 71.40 71.29 70.59 70.91 69.50 69.94 69.13 67.25 66.68 68.44 69.09
77.45 77.95 78.35 77.92 77.76 77.34 75.95 74.33 73.21 72.77 70.74 70.89 70.27 70.49 70.34 70.09 69.09 68.44 68.53 68.38 68.80 69.25
77.55 77.61 77.43 77.48 76.84 75.83 74.05 73.04 72.48 71.48 70.60 70.51 70.34 70.16 70.00 68.93 68.36 68.07 67.47 68.06 69.02 69.11
76.79 76.88 76.90 75.44 73.04 73.84 72.36 70.73 69.45 69.38 70.24 70.39 70.58 70.14 70.34 70.19 69.45 68.54 68.16 68.69 68.85 68.89
76.46 76.52 75.92 74.66 69.66 68.94 69.86 69.87 68.34 69.36 68.90 69.54 70.53 70.50 70.22 69.95 69.53 68.40 67.98 69.02 69.11 69.08
77.26 76.16 74.41 72.61 69.48 68.77 69.07 69.60 66.42 67.19 66.67 68.23 70.17 68.62 70.18 69.39 68.56 68.34 68.48 69.30 69.75 70.03
76.96 74.92 71.79 71.59 70.80 71.60 70.65 69.44 67.67 67.07 67.38 67.58 68.01 64.19 63.71 67.13 68.59 68.98 69.07 69.01 69.80 70.10
75.73 73.15 71.42 71.12 71.06 70.51 69.77 69.69 69.30 68.49 68.57 67.50 69.09 62.31 62.32 63.97 67.97 68.47 69.53 69.89 69.64 67.99
74.37 72.26 72.00 71.00 71.07 70.48 69.24 68.32 69.00 68.98 68.58 68.24 68.68 62.25 61.10 63.34 68.71 69.91 70.11 69.27 67.71 67.02
73.28 71.25 70.48 70.55 70.26 70.88 69.99 69.30 69.70 69.88 69.45 69.03 69.49 58.54 58.60 62.89 68.50 68.63 68.71 66.81 66.24 65.35
72.53 72.04 70.68 71.08 70.81 70.51 70.66 69.28 68.39 68.63 69.48 66.06 69.81 57.97 56.76 61.11 67.57 67.10 65.32 65.40 64.75 60.06
72.83 73.02 72.53 72.08 70.85 70.33 69.94 68.96 69.76 68.75 69.82 68.52 66.16 67.93 55.99 55.93 66.69 64.75 63.74 64.16 66.99 65.99

GFSNIL_sfc_wetblb_003.txt.gz
Wetbulb
81.15 77.47 76.95 77.99 76.30 74.23 73.62 73.48 76.26 75.76 75.80 74.72 72.68 72.55 72.51 70.23 69.48 71.95 69.69 69.68 71.55 68.33
81.00 80.45 77.40 79.73 79.39 76.34 77.95 73.98 73.81 74.91 75.26 74.53 72.83 72.86 72.85 69.43 71.58 70.11 70.08 70.56 71.85 69.32
80.09 80.71 80.33 80.68 79.85 78.90 77.92 76.14 75.90 74.46 74.26 73.76 73.71 73.63 73.31 71.55 72.02 70.99 68.81 67.62 71.47 71.59
79.20 79.70 79.99 79.48 79.25 79.02 77.97 77.31 75.96 75.52 74.45 73.08 72.55 71.96 71.94 71.60 70.77 71.28 71.31 71.06 69.71 70.71
80.12 79.60 79.11 79.27 79.48 79.26 78.03 77.30 75.71 75.10 73.47 72.10 71.70 70.95 71.47 69.88 69.48 69.38 68.42 68.58 70.49 69.48
78.88 79.44 78.88 78.95 79.25 78.65 78.33 76.55 74.38 74.14 73.11 71.66 71.49 71.81 71.73 71.40 70.14 69.18 69.02 68.71 69.99 69.59
79.16 78.97 78.78 79.07 78.58 77.31 77.13 75.38 73.44 73.17 72.10 71.64 71.29 70.81 70.65 70.33 69.84 70.22 69.72 70.08 70.36 70.36
79.85 79.45 78.96 78.67 78.25 76.81 75.70 74.17 72.65 71.88 71.31 71.13 70.01 70.34 71.13 70.26 69.97 70.82 69.67 69.44 69.43 70.43
80.09 79.25 78.45 77.90 76.77 74.72 75.09 73.49 72.43 69.94 69.73 69.41 68.29 64.48 65.13 68.89 68.66 70.03 69.89 68.93 69.71 69.89
80.15 78.34 76.36 76.21 75.23 74.01 73.30 73.27 72.18 69.45 69.74 69.19 69.97 62.52 62.76 64.51 68.58 68.09 69.62 70.03 69.25 69.35
79.27 76.59 74.52 73.61 73.19 73.31 73.66 73.11 71.98 70.22 71.25 70.19 70.08 61.43 61.25 64.04 67.72 67.49 69.11 69.78 69.76 69.83
77.84 75.55 73.81 72.12 72.52 73.60 73.09 73.76 70.90 69.82 69.91 70.29 69.90 59.55 59.14 63.47 67.86 67.63 69.34 69.79 69.92 69.55
77.14 75.05 73.16 72.52 72.60 73.43 74.00 72.63 70.32 69.49 69.76 67.74 70.91 57.91 57.19 61.96 66.45 65.36 66.84 71.74 70.12 61.79
75.51 73.88 72.92 73.36 73.76 72.69 72.47 70.96 68.63 68.10 70.79 71.71 69.95 68.30 55.84 55.94 67.13 65.96 67.39 66.39 67.10 65.78

GFSNIL_sfc_wetblb_006.txt.gz
Wetbulb
77.93 76.98 76.98 77.95 76.42 76.05 74.45 75.18 74.96 75.68 76.24 75.96 73.19 73.26 73.03 71.93 70.95 71.59 70.64 69.55 70.32 69.41
78.30 77.57 76.92 77.58 77.83 76.97 76.50 76.32 75.84 75.21 75.70 74.80 73.70 73.11 73.33 70.19 70.57 71.30 71.70 70.93 70.32 69.12
78.99 78.45 78.01 77.45 77.66 75.89 76.39 76.61 74.45 75.24 74.32 74.48 72.71 73.40 72.71 70.88 71.76 70.51 70.24 69.72 69.73 69.30
78.85 78.82 78.28 78.82 78.48 76.71 77.53 75.48 75.18 74.18 74.21 73.80 72.83 72.90 71.67 70.98 70.38 69.95 70.14 69.93 69.76 69.15
78.85 78.90 78.54 77.55 78.51 77.52 77.76 76.13 74.66 74.82 74.11 73.56 71.59 72.25 70.98 69.66 68.73 70.02 69.10 69.66 69.60 68.93
78.23 78.12 78.08 77.92 77.33 77.85 77.38 76.23 75.73 74.46 73.81 72.22 70.97 71.10 70.53 70.05 69.68 69.82 69.11 68.85 68.97 68.78
77.43 77.64 77.53 78.06 77.66 77.50 77.42 76.22 75.99 74.53 73.60 72.04 70.79 70.50 70.35 70.22 69.87 69.70 69.50 70.27 70.11 69.99
78.12 77.97 77.93 77.78 77.78 77.59 77.75 77.36 76.66 74.46 73.31 71.97 70.37 70.19 70.17 70.14 69.57 69.44 69.53 68.51 70.15 69.81
77.80 77.98 77.58 77.39 77.60 77.49 77.84 76.92 75.87 72.87 71.72 69.83 69.46 66.22 66.52 69.65 69.45 69.73 69.32 67.34 69.61 70.32
77.67 77.94 77.52 77.56 77.56 77.43 76.85 75.90 74.15 71.87 70.17 68.20 69.63 62.48 63.90 66.47 69.12 68.54 69.07 67.76 69.25 67.95
78.06 77.85 77.68 77.42 77.06 77.28 75.58 74.12 73.50 71.72 69.09 68.53 69.28 61.94 61.82 64.54 66.74 67.74 69.02 68.32 68.58 66.18
79.30 78.06 77.68 76.76 76.20 75.50 73.76 73.14 72.48 71.12 69.24 69.04 69.49 59.67 59.74 62.14 65.62 66.57 66.72 68.18 68.23 67.82
79.24 77.89 76.05 75.27 74.05 73.06 73.80 73.25 73.29 70.75 70.29 66.80 70.71 58.88 57.54 61.55 66.41 66.27 66.81 68.12 68.16 62.54
78.83 77.01 75.04 73.17 72.89 73.00 73.32 74.12 71.75 68.68 68.65 69.45 69.51 67.43 56.12 56.75 66.88 66.65 66.05 65.58 66.58 67.40

GFSNIL_sfc_wetblb_009.txt.gz
Wetbulb
74.43 73.03 72.36 72.86 72.74 72.99 72.66 72.87 72.45 72.81 71.98 70.17 68.93 69.07 68.85 66.89 66.62 66.33 65.06 64.61 63.58 63.75
74.64 74.40 73.49 72.77 74.08 72.49 71.95 72.48 72.40 73.03 72.19 71.01 68.82 68.75 67.77 66.72 65.20 66.40 65.56 63.43 63.89 63.83
75.35 74.30 73.96 73.06 73.44 73.16 71.62 72.52 71.54 72.78 73.01 71.52 69.07 68.50 67.58 65.73 66.87 65.47 65.76 65.26 64.70 63.92
75.67 75.17 74.53 74.25 73.97 73.20 72.75 72.05 72.29 72.02 72.53 71.22 69.43 69.30 67.93 65.72 65.46 66.34 63.76 64.64 63.59 64.68
76.33 75.99 75.09 74.16 74.44 74.21 72.96 72.33 72.45 72.39 71.06 71.35 69.98 69.16 68.60 66.30 66.65 64.82 65.34 64.31 63.44 63.26
75.90 76.10 75.90 74.75 75.59 75.36 73.41 73.09 71.65 71.13 70.96 70.64 70.04 69.05 68.78 66.90 65.45 66.09 65.85 65.65 65.48 64.98
75.80 76.01 76.08 76.00 74.79 75.31 74.92 73.21 71.57 71.30 71.11 71.01 69.83 68.96 68.36 67.27 65.67 65.88 66.01 65.42 66.29 65.81
75.89 76.17 76.16 75.99 75.85 74.61 74.40 73.77 73.36 71.42 71.45 70.45 69.27 68.92 67.25 67.33 66.25 65.90 65.44 65.75 67.07 66.56
75.40 75.34 75.58 75.61 75.37 75.18 74.29 74.07 73.69 72.18 71.13 69.69 69.47 66.01 66.23 67.54 66.79 66.10 65.57 66.06 66.82 65.60
74.69 74.69 74.73 75.12 74.68 74.78 74.56 74.83 73.89 72.11 70.77 69.07 67.82 63.66 64.30 66.57 66.66 65.99 66.05 66.86 66.58 66.08
74.57 74.44 75.05 74.95 74.61 74.97 74.95 74.27 72.86 71.15 69.75 68.08 67.36 61.56 61.87 64.42 66.33 65.95 65.91 67.10 66.56 64.86
73.97 74.42 75.05 74.59 74.41 75.00 74.48 72.91 72.02 70.56 68.02 66.84 66.79 60.40 59.13 61.69 64.04 65.03 65.11 65.71 65.68 64.33
73.97 74.61 75.00 74.71 74.41 73.37 72.46 71.42 71.55 69.82 67.66 65.21 66.83 59.55 58.65 60.18 63.84 63.09 63.05 63.52 64.98 62.43
76.00 75.68 74.60 73.14 71.59 71.04 70.72 71.21 70.88 69.45 67.41 66.82 66.82 63.10 56.54 56.60 63.74 62.60 62.96 62.32 62.57 63.36

GFSNIL_sfc_wetblb_012.txt.gz
Wetbulb
72.71 72.54 71.96 69.83 71.49 72.03 72.52 72.78 72.45 72.79 71.19 68.29 67.49 66.68 65.65 64.65 64.78 64.69 63.50 64.10 62.69 62.18
73.42 72.87 72.12 71.18 72.09 72.36 72.29 72.71 72.21 72.70 70.49 68.84 68.07 67.34 66.52 64.76 64.36 65.65 63.50 62.78 61.93 62.53
73.06 73.95 72.76 71.76 72.20 71.92 71.81 72.16 71.91 71.73 70.87 69.26 67.48 68.13 66.65 64.91 64.14 64.82 64.61 63.68 62.14 62.38
73.47 73.21 73.35 72.49 72.59 72.92 71.80 70.97 71.59 71.30 71.07 69.66 67.94 67.20 66.29 64.89 64.98 63.48 63.96 64.42 63.35 62.91
74.30 73.98 73.04 72.69 73.04 72.37 72.28 71.36 71.56 71.27 71.59 70.55 68.97 67.14 67.01 64.78 65.09 64.76 63.39 62.67 62.64 62.13
74.16 74.07 73.59 72.83 73.21 73.10 72.33 70.95 71.17 70.85 71.38 70.97 69.55 67.96 67.23 66.28 64.97 64.07 64.78 63.95 62.60 62.54
74.46 74.54 74.49 73.94 73.31 72.98 73.32 71.41 70.97 71.17 70.75 71.20 70.31 68.56 68.25 66.86 65.35 64.91 64.69 64.67 64.49 63.81
74.91 75.14 75.04 74.54 74.06 73.37 74.21 72.26 71.48 70.01 70.54 70.13 70.11 69.42 68.07 67.56 65.95 64.84 64.40 64.55 64.63 64.81
75.16 74.91 74.79 75.14 74.64 73.55 73.21 73.45 71.25 70.20 69.51 69.53 70.21 66.50 65.87 67.67 66.71 65.84 64.59 63.77 64.02 64.96
74.75 74.39 74.49 74.79 74.64 74.30 73.16 72.54 71.91 70.44 70.16 69.70 69.67 64.20 64.09 65.98 67.04 65.80 65.11 64.07 64.13 65.07
74.52 74.16 74.39 74.51 74.36 74.22 74.27 72.89 72.64 71.35 70.86 70.10 69.64 62.91 62.32 64.89 66.96 66.14 65.20 64.98 65.00 65.85
74.43 73.68 73.87 73.61 73.98 73.98 74.20 73.74 73.18 71.98 70.67 70.00 69.51 60.21 59.86 63.46 66.38 65.95 64.47 64.73 65.49 66.29
74.39 73.59 73.32 73.60 73.74 74.22 74.39 73.80 72.22 70.82 70.27 66.99 67.95 58.03 57.93 60.91 63.65 63.97 63.75 64.80 64.89 61.60
73.87 73.58 73.69 74.09 74.31 74.41 73.29 72.57 71.31 69.15 67.07 66.76 66.58 64.41 57.82 56.41 63.41 62.90 62.76 62.54 63.08 63.64

GFSNIL_sfc_wetblb_015.txt.gz
Wetbulb
71.76 71.33 70.96 69.78 70.12 70.50 71.37 71.76 72.38 72.16 71.66 70.13 66.73 66.14 64.88 63.89 63.18 63.42 63.24 61.14 61.18 62.11
72.07 71.67 71.04 69.82 70.51 70.71 71.63 72.33 71.99 72.29 71.71 69.95 67.58 65.84 64.59 63.72 63.64 63.92 62.48 62.68 62.70 61.27
72.24 72.14 71.65 71.07 70.27 70.72 71.40 71.49 71.28 71.95 71.38 69.59 67.34 66.15 65.23 63.83 63.21 64.12 63.06 62.29 61.36 61.03
72.10 72.24 72.07 71.05 71.37 71.43 71.32 71.23 71.53 71.53 71.05 69.61 67.46 66.77 65.78 64.68 63.80 63.13 63.47 63.48 61.98 61.23
71.82 72.10 72.37 71.55 71.38 71.84 71.42 70.97 71.30 71.14 70.99 69.81 68.17 66.87 66.06 65.39 65.25 63.31 61.96 63.25 62.67 62.29
71.90 71.65 71.97 72.39 72.24 71.88 72.07 70.53 71.03 70.75 70.54 69.82 68.56 66.71 66.63 65.76 65.34 64.95 63.66 62.41 62.35 62.34
72.10 72.42 72.11 72.30 72.31 72.34 72.15 70.98 70.38 70.51 70.78 70.74 69.74 68.54 67.20 66.36 65.34 64.80 64.77 64.57 63.25 62.16
72.71 73.19 73.04 72.64 72.14 72.16 71.92 71.61 70.87 70.01 70.29 70.77 70.31 69.38 67.86 67.17 66.06 65.34 64.65 64.45 64.23 63.41
73.08 73.18 73.23 73.06 72.58 72.02 71.69 71.73 70.46 70.03 69.70 69.30 70.35 66.47 65.79 67.98 66.97 66.10 65.27 64.10 64.24 64.00
72.83 73.01 73.27 73.42 72.94 72.22 71.56 72.09 70.17 69.73 69.56 69.25 69.43 64.61 63.98 65.96 67.33 66.25 65.56 65.65 65.20 63.83
73.10 72.96 73.40 73.55 73.19 73.01 72.29 72.46 70.48 69.84 69.31 69.45 69.52 61.85 62.15 64.97 67.31 66.72 66.79 66.10 65.21 63.26
73.49 73.09 73.50 73.24 73.41 73.81 73.35 72.13 71.81 70.99 70.26 69.99 69.66 60.46 60.44 62.86 67.10 66.74 66.41 66.41 63.93 63.93
73.84 73.40 73.16 73.44 73.69 74.42 74.36 73.09 72.68 72.01 71.41 68.54 69.89 58.57 58.57 62.75 67.33 66.45 64.66 62.39 63.48 62.40
73.90 73.89 73.88 73.72 73.94 74.09 74.12 73.62 73.01 72.53 71.96 71.08 68.79 59.48 56.84 59.71 66.18 64.89 62.94 62.44 62.58 63.41

GFSNIL_sfc_wetblb_018.txt.gz
Wetbulb
71.24 71.00 70.95 70.69 70.62 70.69 71.18 72.05 73.19 72.82 72.63 71.93 70.17 69.46 68.16 66.68 65.48 66.21 66.52 65.48 64.99 64.80
71.46 71.41 70.99 71.41 70.98 71.09 71.70 72.27 72.78 72.99 72.44 72.05 70.10 69.28 67.88 66.45 65.74 65.79 65.95 65.66 64.64 64.88
71.59 71.91 71.93 71.66 70.72 70.99 71.38 72.71 72.67 72.87 72.70 71.99 70.43 68.86 67.70 66.56 66.30 66.22 65.15 65.00 65.24 64.56
71.91 72.06 72.28 71.68 71.29 71.26 71.83 72.02 72.44 72.62 72.45 71.59 70.11 68.85 67.51 66.79 66.23 65.90 66.02 65.35 64.45 64.62
72.15 72.25 71.98 71.57 71.88 71.88 71.36 72.03 72.30 72.33 72.38 71.71 70.35 69.11 68.09 67.02 66.70 65.78 65.15 65.40 64.91 64.49
71.73 71.86 71.65 71.80 72.11 71.97 71.94 71.59 72.01 72.15 71.92 71.45 70.67 69.27 68.87 68.15 67.30 66.46 66.01 65.61 65.66 65.48
71.18 71.53 72.01 72.28 72.08 71.81 72.25 71.58 71.75 71.82 71.89 71.70 71.10 70.04 69.30 68.44 67.64 67.32 66.84 65.77 65.48 65.17
71.29 71.60 71.88 72.27 72.34 72.31 72.04 72.14 71.60 71.70 71.66 71.87 71.16 70.38 69.21 68.77 67.77 67.17 66.79 66.13 65.79 65.42
71.48 71.69 71.63 71.77 72.06 72.34 72.11 72.31 71.56 71.16 71.30 71.09 71.31 67.02 65.75 68.35 68.44 67.86 67.17 66.18 65.84 66.78
71.59 71.63 72.19 72.31 71.83 71.61 71.60 72.08 71.32 71.24 71.17 71.13 71.57 64.28 64.48 66.15 69.45 68.52 67.72 67.27 66.49 66.02
71.73 71.80 72.22 72.51 72.23 72.01 71.83 71.60 71.47 71.15 71.02 70.87 70.78 63.01 62.43 64.95 70.24 68.84 67.67 67.33 67.35 67.14
71.88 71.85 72.29 72.37 72.34 72.60 72.19 71.73 71.63 71.75 70.80 70.64 70.70 61.55 60.27 63.79 69.36 68.15 67.27 67.70 67.60 67.18
72.57 72.35 72.17 72.82 72.99 73.33 73.07 72.45 72.58 71.60 71.20 68.67 71.11 59.15 58.38 63.72 68.58 67.00 66.48 67.40 67.36 62.06
72.97 72.99 72.92 73.28 73.67 73.66 73.47 73.18 72.61 71.66 71.61 71.60 70.32 65.35 57.11 59.10 68.28 67.74 67.04 65.38 64.51 65.40

GFSNIL_sfc_wetblb_021.txt.gz
Wetbulb
76.43 75.23 75.42 75.95 74.49 74.26 74.37 75.08 76.94 76.91 77.26 77.14 76.77 76.33 75.66 74.12 73.25 72.69 71.70 71.22 70.83 69.75
75.92 75.78 75.34 76.40 76.49 74.99 76.59 75.47 76.31 76.96 76.88 77.16 76.83 76.27 75.54 73.76 72.94 71.91 71.79 71.34 71.08 69.88
75.45 75.83 76.07 76.54 76.07 76.27 76.56 76.34 76.03 76.31 76.64 76.88 76.73 76.16 75.45 74.46 73.73 71.97 70.94 70.37 70.70 70.27
75.30 75.46 75.80 75.85 76.28 76.41 76.64 76.57 76.32 76.39 76.24 76.32 76.23 76.00 75.18 74.86 73.99 71.82 71.60 70.78 70.41 70.43
75.65 75.51 75.38 75.52 76.12 76.68 76.51 76.65 77.33 77.18 76.27 76.34 76.39 76.02 74.84 74.35 73.75 72.26 71.39 71.10 70.27 69.62
75.31 75.46 75.26 75.58 76.13 76.54 76.62 76.53 75.90 76.90 76.82 76.01 75.83 75.53 75.22 75.01 74.33 73.05 72.54 71.79 70.40 69.69
74.91 75.28 75.53 76.02 76.08 76.34 76.65 76.40 76.65 76.97 76.68 76.42 75.71 75.63 75.13 74.73 74.65 73.80 72.90 72.65 71.46 70.49
75.24 75.83 75.95 75.83 75.99 76.31 76.48 76.23 76.57 76.61 76.67 76.67 75.73 74.90 75.28 74.67 74.33 74.06 72.98 72.63 71.61 70.86
75.06 75.65 75.57 75.87 75.98 76.21 76.09 76.27 76.29 76.02 76.31 76.14 75.04 69.07 67.66 72.94 74.55 73.86 73.68 72.71 71.96 71.26
74.94 74.99 75.28 75.71 75.89 75.43 75.55 75.93 75.78 75.90 76.11 75.87 76.26 65.39 65.28 67.35 74.67 74.04 73.94 73.55 72.55 71.03
74.70 74.51 75.17 75.07 75.23 75.56 75.79 75.45 75.54 75.46 75.84 75.92 75.77 64.02 63.30 65.75 73.74 74.51 74.48 73.61 73.12 71.96
74.62 74.54 74.98 74.68 74.71 75.30 75.45 75.48 75.43 75.90 75.78 75.39 75.85 62.90 61.34 65.06 72.68 73.98 73.84 73.51 73.15 72.47
75.68 75.33 74.98 75.38 75.58 75.88 75.81 75.37 75.23 75.62 76.02 72.31 75.53 62.40 59.79 64.26 73.35 73.20 72.21 72.80 72.51 63.87
75.78 75.50 75.95 76.17 76.14 75.99 75.81 75.29 75.35 75.19 75.46 75.77 74.17 74.24 58.63 58.83 73.84 73.01 70.43 70.63 70.01 71.63

GFSNIL_sfc_wetblb_024.txt.gz
Wetbulb
79.59 76.89 77.08 78.27 77.08 76.51 76.01 76.54 77.96 78.06 78.53 78.60 78.85 78.87 78.86 77.63 76.81 76.62 75.29 74.13 72.73 69.92
79.20 78.92 77.24 79.31 79.08 77.57 79.34 77.31 77.73 78.10 78.35 78.40 78.54 78.80 78.91 77.19 77.03 76.49 75.76 74.61 73.45 71.37
78.45 79.34 79.51 79.92 79.34 79.59 79.17 79.15 78.21 77.99 78.07 78.19 78.44 78.66 78.70 77.66 77.67 76.65 75.25 74.11 73.43 72.87
78.17 78.38 78.67 78.69 79.71 80.15 79.39 79.97 78.99 78.84 77.93 77.61 77.93 78.39 78.36 78.38 77.55 76.59 76.01 74.82 73.67 73.00
79.15 78.96 78.17 78.87 79.42 80.19 79.78 80.08 79.74 79.02 78.41 77.84 77.56 78.65 78.05 77.46 76.71 76.53 75.73 74.96 74.02 73.22
77.80 78.12 78.51 79.25 79.15 79.90 79.90 79.98 78.40 79.31 79.55 78.68 77.90 78.29 78.26 78.13 77.57 76.80 76.45 75.93 74.93 73.90
78.33 78.38 78.74 79.50 79.47 79.82 80.07 80.01 79.74 79.94 80.18 79.32 78.64 78.22 77.73 77.75 77.66 77.50 76.94 76.84 75.96 74.97
78.68 79.44 79.50 79.34 79.64 79.83 79.92 79.78 80.12 79.95 80.00 79.92 78.29 77.07 78.72 78.42 77.44 77.87 77.52 77.37 76.74 75.94
78.81 79.26 79.25 79.59 79.51 79.70 79.71 79.76 79.76 79.39 79.66 79.37 77.92 70.60 68.67 75.59 78.31 78.48 78.25 77.16 76.95 76.49
78.72 78.69 79.12 79.42 79.53 79.09 79.21 79.57 79.38 79.34 79.48 79.51 79.68 66.63 66.11 68.69 77.65 78.25 78.00 78.19 77.35 75.81
77.76 78.24 78.72 79.17 78.87 79.05 79.06 78.85 78.74 79.00 79.36 79.40 79.26 66.15 63.76 66.74 76.88 78.33 78.45 77.71 77.23 77.07
77.74 77.36 78.04 78.26 78.69 78.97 78.66 78.69 78.58 78.95 79.21 79.19 79.17 64.54 61.91 66.21 75.95 76.10 78.27 77.84 77.65 77.40
78.41 78.33 77.88 78.38 78.80 79.22 79.11 78.36 77.51 78.25 79.09 75.16 79.03 65.71 60.24 65.91 74.90 75.24 75.15 77.74 78.58 66.21
78.40 78.66 78.89 79.25 79.42 78.77 78.41 77.87 78.38 78.36 78.78 79.37 77.63 77.81 58.51 60.08 75.81 75.40 74.83 74.55 74.99 75.94

GFSNIL_sfc_wetblb_027.txt.gz
Wetbulb
80.43 77.51 76.94 78.52 76.49 75.78 75.29 75.95 80.17 80.28 80.16 79.90 79.80 79.23 80.64 78.20 77.27 78.69 76.08 75.63 75.11 71.04
79.78 79.44 77.98 78.86 79.46 77.99 79.17 76.91 80.15 80.39 79.87 79.99 80.06 80.47 80.52 77.31 78.62 78.71 77.63 76.62 75.94 72.52
80.26 80.40 80.02 80.55 80.32 78.88 79.83 80.63 80.59 79.54 79.64 79.58 80.07 80.38 80.57 78.62 79.35 79.22 77.14 75.41 77.08 75.61
79.69 79.98 80.53 80.08 80.70 80.53 81.09 81.65 80.15 80.91 79.94 79.81 79.69 80.26 80.26 79.66 79.34 78.66 78.57 77.92 77.59 76.06
79.92 79.70 79.78 79.92 80.20 81.10 80.81 81.13 81.70 80.98 80.62 80.32 79.66 80.08 79.83 79.05 77.56 78.77 77.65 76.97 77.06 75.47
79.57 79.66 79.31 79.95 80.25 80.79 80.91 81.06 80.76 80.92 80.94 80.43 79.75 79.78 80.09 79.80 79.21 79.08 78.66 78.07 77.43 76.19
79.51 79.45 79.80 80.22 80.53 80.52 81.07 80.84 80.82 80.82 80.87 80.58 80.41 79.65 79.68 79.58 79.46 79.23 78.84 78.67 78.51 77.69
79.86 80.67 80.90 80.70 80.64 80.92 80.90 80.82 80.97 80.72 80.68 81.14 80.60 79.23 79.38 79.21 79.21 79.39 78.95 78.88 79.12 78.72
79.67 80.44 80.65 80.88 80.87 81.08 80.57 80.73 80.85 80.48 80.13 80.15 79.94 72.12 69.21 76.26 78.81 79.26 79.28 78.71 79.32 79.34
79.80 79.81 80.41 81.12 80.93 80.35 80.34 80.94 80.54 80.21 80.36 79.95 80.49 68.41 66.45 68.71 78.70 79.08 79.06 79.39 79.13 78.33
79.16 79.95 80.43 80.43 80.20 80.62 80.51 80.20 80.23 80.15 80.63 80.21 80.08 68.39 64.08 66.76 77.18 78.36 79.34 79.22 79.33 79.11
79.67 79.67 79.94 79.59 79.83 80.40 80.09 80.01 79.81 80.37 80.28 79.90 80.12 66.22 63.23 65.39 76.32 77.02 77.87 79.24 79.52 79.06
80.15 79.83 79.77 79.86 80.22 80.49 80.54 80.01 79.67 79.87 80.31 76.38 80.09 67.87 62.14 64.82 76.67 76.18 76.66 77.84 79.22 68.09
80.33 80.35 80.43 80.35 80.77 80.66 80.40 79.66 79.75 79.53 80.11 80.43 78.98 78.98 60.84 59.27 77.06 76.47 76.14 76.39 76.70 78.10

GFSNIL_sfc_wetblb_030.txt.gz
Wetbulb
78.41 76.24 75.00 77.98 75.37 75.54 75.36 75.36 78.32 77.44 78.45 78.45 78.35 78.29 79.30 77.49 77.33 77.56 76.50 76.90 74.78 72.97
76.47 77.77 75.13 76.24 77.81 77.06 77.16 77.34 78.87 77.76 77.72 77.62 78.46 78.22 78.38 77.03 77.36 77.99 76.77 75.96 76.27 74.01
76.73 77.43 77.61 76.14 77.28 76.59 78.06 77.43 80.59 77.97 77.95 78.13 78.20 78.85 78.31 77.65 77.80 76.94 77.15 75.78 74.99 74.17
77.86 76.96 77.19 77.25 76.92 78.54 77.31 80.11 77.67 79.62 78.35 78.03 77.83 78.09 78.18 77.29 76.85 77.30 76.35 76.36 75.73 73.87
78.12 78.36 77.55 76.44 77.34 78.12 79.20 77.93 79.66 78.85 78.41 78.18 77.73 78.00 77.54 77.18 76.08 76.53 76.38 75.91 75.72 74.31
77.73 77.67 77.83 77.90 76.92 78.37 77.89 79.29 78.05 79.36 78.66 77.82 77.77 77.39 77.98 77.50 77.16 75.91 77.13 76.62 75.57 74.78
77.98 77.87 77.89 78.12 78.29 77.53 78.45 77.76 78.57 78.40 78.47 78.79 78.06 77.86 77.63 77.55 77.48 76.99 76.59 77.26 76.68 75.81
77.90 78.62 78.40 78.20 78.40 78.75 78.11 78.23 78.19 78.22 78.37 78.48 78.63 78.33 77.51 77.40 77.17 77.30 76.72 76.74 77.32 76.72
77.52 78.01 78.65 78.45 78.50 78.65 78.47 78.48 78.69 78.25 78.21 78.05 78.40 72.52 70.16 75.24 77.05 77.24 76.87 76.45 76.57 77.10
77.54 77.59 77.95 78.71 78.67 78.10 78.40 78.70 78.29 78.46 78.54 77.73 78.22 69.04 67.78 69.62 77.14 76.76 76.86 76.76 76.87 76.65
78.36 77.66 78.23 78.19 78.31 78.55 78.71 78.68 78.30 78.36 78.78 78.42 78.36 68.20 65.23 67.30 75.88 76.63 76.84 76.94 77.07 76.74
79.03 78.23 78.18 78.19 78.27 78.77 78.79 78.43 78.72 78.70 78.76 78.52 78.43 65.95 63.69 65.19 74.67 75.33 75.93 76.96 77.26 77.22
77.79 78.23 77.94 78.40 78.55 79.21 79.32 78.84 78.94 78.71 79.01 75.20 78.82 68.42 61.81 64.58 75.75 74.54 74.81 75.84 76.69 68.44
79.22 78.21 78.48 79.18 79.52 79.30 79.24 78.86 78.60 78.50 78.89 78.96 77.82 77.81 61.40 59.44 76.24 76.17 75.11 74.83 75.05 76.00

GFSNIL_sfc_wetblb_036.txt.gz
Wetbulb
72.28 71.94 71.40 69.58 69.12 69.71 71.85 71.62 72.37 74.11 74.10 73.72 73.55 72.99 72.11 71.69 71.83 71.99 70.39 70.23 67.33 65.85
72.87 72.50 71.81 70.76 70.83 69.48 71.36 73.16 72.81 73.55 74.33 73.86 74.10 72.96 72.84 71.85 71.69 72.87 71.52 69.94 70.28 67.22
72.41 74.06 72.87 71.21 70.24 71.69 70.69 71.85 73.37 73.14 74.43 74.08 73.68 73.52 73.20 72.84 72.04 72.06 72.28 71.20 69.79 69.37
71.94 72.07 74.17 72.09 70.25 70.54 71.73 71.14 71.63 73.21 73.39 74.21 73.95 73.61 73.02 72.91 73.58 72.30 72.36 72.30 70.86 69.58
73.09 72.07 72.08 73.80 72.07 71.06 71.10 72.44 71.28 73.29 73.24 73.74 74.26 74.23 73.43 72.49 73.28 73.61 72.19 72.68 71.74 71.05
73.10 72.72 71.79 72.17 74.25 72.81 70.85 71.67 72.73 73.93 73.45 73.39 73.78 73.88 74.55 73.63 73.16 72.95 73.51 72.98 72.51 72.14
72.93 73.26 73.10 72.51 72.40 74.10 73.36 70.36 72.20 73.43 74.56 74.03 74.18 73.95 73.95 74.36 74.12 73.55 73.21 73.39 73.45 72.99
73.08 73.92 74.10 73.66 72.85 72.68 73.13 73.70 71.69 72.70 73.13 75.00 74.83 74.88 74.28 74.15 73.96 73.99 73.79 73.31 73.80 73.85
73.85 73.70 73.80 74.26 74.16 73.29 72.84 72.34 73.53 73.16 74.06 73.16 75.07 70.26 68.95 73.11 74.27 74.01 73.41 73.21 73.12 73.58
73.91 74.08 74.16 74.32 74.33 74.28 74.03 73.73 71.98 72.59 73.73 73.66 74.28 67.08 66.87 68.84 74.44 74.07 73.91 73.71 73.56 73.66
74.19 74.09 74.52 74.60 74.18 74.48 74.62 74.73 74.30 72.93 72.95 74.01 74.28 65.74 64.49 66.80 73.80 74.51 74.27 74.37 74.20 73.88
74.11 74.29 74.36 74.08 74.28 74.55 74.69 74.36 74.66 75.14 74.30 73.37 73.87 63.76 63.14 64.95 72.13 73.66 74.45 74.99 74.78 74.74
73.42 74.16 74.10 74.37 74.41 75.12 74.99 74.86 75.10 74.69 75.46 72.08 74.78 63.85 61.68 64.43 73.89 73.31 73.80 74.66 75.23 67.41
72.63 73.42 74.50 74.66 74.95 74.95 75.10 75.02 74.88 74.98 75.22 75.55 74.05 73.76 60.49 59.98 73.94 74.53 74.38 74.30 74.32 75.06

GFSNIL_sfc_wetblb_039.txt.gz
Wetbulb
69.55 69.41 69.44 69.23 68.83 68.69 69.57 70.76 71.76 72.75 72.77 72.23 72.15 72.32 71.32 70.25 70.17 70.58 69.23 69.20 66.02 65.64
70.26 70.17 69.91 69.37 69.40 69.35 69.72 71.07 70.88 72.56 73.10 72.91 72.75 72.25 71.66 70.41 70.49 71.48 70.58 68.92 69.21 66.16
71.04 71.06 71.00 70.18 69.20 68.64 69.56 71.19 71.27 71.42 72.38 72.74 72.96 72.41 71.86 71.05 70.55 70.69 71.04 70.70 68.76 68.74
71.44 71.63 71.55 71.02 70.21 70.82 69.25 70.51 71.54 71.57 71.93 72.59 72.64 72.56 72.06 71.90 71.47 70.49 70.58 71.19 70.11 68.80
71.73 72.18 72.18 71.71 70.53 70.21 70.61 70.42 70.80 71.99 71.99 72.46 72.76 72.65 72.16 71.81 72.82 71.76 70.75 71.03 70.90 70.71
71.06 70.86 71.36 73.03 72.77 70.12 69.22 70.49 70.56 71.17 71.59 72.02 72.85 72.98 72.83 72.56 72.02 72.54 72.72 72.36 71.58 71.67
71.57 71.53 71.08 71.32 72.60 72.70 70.68 70.05 71.08 71.63 72.05 72.30 72.53 73.10 73.24 73.09 72.63 72.06 72.50 73.26 73.13 72.77
72.30 72.67 72.15 71.44 71.27 72.48 72.74 71.46 71.14 71.51 72.39 72.93 72.79 73.19 72.93 73.12 73.03 72.51 72.14 72.50 72.95 73.13
71.95 72.43 72.25 72.05 71.57 71.06 71.90 72.92 72.19 70.73 71.32 72.35 73.77 69.40 68.35 71.99 72.79 73.02 72.67 72.23 72.60 72.90
71.96 71.60 72.24 72.61 72.41 71.75 71.02 71.46 71.76 72.31 71.59 71.39 71.98 66.35 66.38 68.30 73.66 73.07 72.84 72.59 72.77 72.96
72.40 72.07 72.07 72.41 72.67 72.78 72.55 71.67 71.39 71.18 71.70 72.32 72.75 65.74 64.11 66.54 72.98 73.66 73.57 73.44 73.34 72.94
72.74 72.72 72.88 72.54 72.48 73.13 73.27 73.37 73.14 72.81 71.75 71.21 72.08 63.43 62.67 64.77 71.79 72.88 73.42 73.96 73.99 73.94
73.12 73.06 72.92 73.51 73.51 73.72 73.89 73.67 74.06 74.03 74.25 70.49 72.38 63.50 60.99 63.33 72.08 72.04 72.63 73.64 74.14 66.63
73.07 73.32 73.91 73.91 74.10 73.97 73.74 73.82 73.56 73.48 73.94 74.29 72.82 72.66 59.89 59.59 72.22 72.87 72.75 72.87 73.29 74.13

GFSNIL_sfc_wetblb_042.txt.gz
Wetbulb
69.40 68.77 69.31 69.27 69.15 69.10 70.03 71.34 72.81 73.00 73.47 73.34 73.30 73.32 73.27 71.91 71.70 72.67 71.66 71.97 69.83 68.33
69.35 69.23 69.25 69.67 70.14 69.58 70.49 71.64 72.35 73.02 73.51 73.68 73.51 73.72 73.53 72.57 72.38 72.74 72.64 71.75 71.93 70.03
69.53 69.62 69.91 70.10 69.72 69.73 70.39 71.76 72.20 72.49 73.19 73.78 73.84 73.80 73.44 72.84 72.73 72.35 72.83 72.71 71.55 71.51
69.94 70.28 70.51 70.38 70.35 69.93 70.37 71.37 71.72 71.98 72.39 73.18 73.54 73.91 73.44 73.44 73.16 72.21 72.52 72.83 72.48 72.28
70.65 70.83 70.65 70.69 70.74 71.05 70.18 71.33 71.93 72.31 72.20 72.65 73.18 73.44 73.53 73.09 73.61 72.74 72.26 72.36 72.56 72.51
70.38 70.92 70.84 71.19 71.36 71.12 71.52 71.01 71.55 72.16 72.33 72.35 72.98 73.34 73.54 73.51 73.34 73.51 73.45 73.18 72.65 72.60
70.52 71.05 71.66 71.96 72.19 70.58 71.25 71.64 71.55 71.84 72.18 72.70 73.20 73.71 73.76 73.61 73.51 73.38 73.88 74.08 73.63 73.36
71.14 71.64 71.78 72.21 72.99 72.30 71.11 71.31 71.57 71.83 72.17 72.72 73.02 73.13 73.76 73.94 73.61 73.43 73.08 73.64 74.10 74.38
71.39 71.46 71.25 71.17 71.37 72.74 72.60 72.15 71.76 71.59 71.84 71.98 72.47 68.26 67.60 72.12 73.76 74.02 73.53 73.00 73.35 73.97
71.73 71.71 71.77 71.91 71.39 71.10 71.85 72.84 72.31 71.79 72.01 72.00 72.86 66.07 65.65 67.68 73.73 73.77 73.80 73.82 73.78 73.66
72.03 71.76 72.21 72.31 71.97 71.57 71.59 71.50 72.39 72.72 72.55 71.75 72.23 64.90 63.84 66.12 72.71 73.57 73.82 74.21 74.24 74.06
72.05 71.65 71.80 71.87 72.19 72.56 72.30 71.74 71.46 71.90 72.28 72.52 72.74 62.43 62.24 64.44 72.08 73.21 73.48 74.39 74.67 74.59
72.67 72.34 71.92 72.14 72.35 73.09 73.49 73.16 73.26 72.58 72.86 69.43 72.40 63.40 60.92 63.09 71.91 71.86 72.45 74.01 74.71 66.28
73.12 72.91 73.26 73.22 73.48 73.15 73.42 73.65 73.70 73.80 74.37 74.34 72.21 72.02 59.73 58.91 71.83 72.72 72.82 72.92 73.57 74.80

GFSNIL_sfc_wetblb_045.txt.gz
Wetbulb
75.30 73.23 73.26 74.47 73.49 73.11 72.93 74.06 76.61 76.83 77.03 77.19 77.47 77.47 77.47 76.39 76.15 76.63 75.80 75.77 75.69 74.01
74.75 74.70 73.91 75.52 75.11 73.81 75.44 74.13 76.01 76.68 76.75 76.95 77.14 77.41 77.66 76.20 76.65 76.42 76.56 76.32 76.37 75.25
74.25 74.88 75.01 75.29 74.95 75.36 74.67 75.03 75.40 76.47 76.75 76.97 77.14 77.30 77.40 76.58 77.19 77.06 76.52 75.93 76.16 76.09
73.76 74.06 74.71 74.19 74.55 75.54 75.17 75.44 75.75 76.44 76.61 76.55 76.72 77.16 77.24 76.97 76.89 76.59 76.88 76.91 76.18 76.32
73.89 74.25 73.37 74.26 74.42 75.51 75.46 75.67 76.00 76.22 76.21 76.52 76.56 76.80 76.68 76.06 76.15 76.45 76.13 76.54 76.60 76.12
73.34 73.40 74.13 74.64 74.91 75.53 75.61 75.68 75.32 75.61 75.85 76.04 76.33 76.38 76.67 76.59 76.60 76.47 76.55 76.75 76.71 76.57
73.73 74.06 74.28 75.24 75.60 74.93 75.98 75.83 75.57 75.77 75.91 76.00 76.30 76.47 76.41 76.55 76.59 76.74 76.69 77.00 77.03 77.03
74.33 75.14 75.49 75.70 75.83 75.43 75.69 75.98 76.18 75.82 75.77 75.83 75.79 75.57 76.19 76.64 76.63 76.67 76.71 77.14 77.31 77.36
74.74 74.96 75.08 75.70 75.79 75.69 75.57 75.91 76.01 75.51 75.60 75.44 74.95 68.97 67.90 73.84 76.18 77.00 76.85 76.38 77.02 77.41
74.92 74.79 75.15 75.79 76.10 76.19 75.69 75.61 75.75 75.11 75.39 75.87 76.51 66.27 65.49 67.84 75.45 76.27 76.50 76.90 77.02 76.80
74.87 74.71 75.42 75.56 75.43 75.96 76.12 76.18 75.70 75.51 76.04 75.80 76.43 65.36 63.70 65.58 74.41 76.52 77.31 77.56 77.31 77.63
75.05 75.00 75.29 74.95 75.21 75.39 75.05 74.96 75.40 75.77 75.91 75.97 76.31 63.46 62.67 65.83 74.35 74.96 76.63 77.31 77.59 77.25
75.81 75.50 75.57 75.96 76.08 76.45 75.86 74.95 74.97 74.98 75.94 72.34 76.50 65.17 60.51 64.40 73.86 74.49 74.30 77.01 77.41 67.60
76.33 76.26 76.59 76.77 76.98 76.15 75.67 76.14 75.81 75.17 75.89 75.96 74.64 75.04 60.34 58.68 73.62 74.11 74.43 74.62 75.06 76.08

GFSNIL_sfc_wetblb_048.txt.gz
Wetbulb
77.32 74.70 74.73 75.98 75.20 74.46 73.98 74.55 76.83 78.24 78.37 78.83 78.93 78.70 78.77 78.34 77.12 77.82 76.83 76.86 76.76 73.68
77.28 76.92 75.90 78.32 76.68 75.43 77.39 75.33 76.27 76.84 77.76 77.89 78.40 78.75 78.95 76.93 77.78 77.84 77.62 77.60 77.59 76.46
75.91 77.23 77.23 77.06 77.51 77.44 76.58 77.15 76.44 76.61 76.79 77.25 78.04 78.34 78.87 77.57 78.15 77.97 77.53 76.53 77.30 77.61
75.54 75.89 76.46 75.98 76.51 76.95 77.22 77.41 77.43 76.81 76.55 77.16 77.88 78.34 78.25 78.22 77.60 77.80 77.96 78.03 77.31 77.51
76.46 76.55 75.59 76.09 76.48 77.40 77.06 77.42 77.60 77.43 77.04 76.97 77.09 78.27 78.16 77.65 77.05 77.25 77.15 77.66 77.77 77.15
75.22 75.35 76.08 76.52 76.75 77.36 77.21 77.36 77.41 77.28 77.25 77.03 76.84 77.79 78.30 78.14 77.76 77.50 77.56 77.77 77.65 77.60
75.51 75.85 75.49 77.59 77.83 76.85 77.77 77.16 77.37 77.75 77.29 77.36 76.93 76.95 77.67 77.76 77.76 77.53 77.70 78.27 78.24 78.16
77.22 77.54 77.72 78.07 78.05 77.53 78.13 77.55 77.88 77.62 77.36 77.66 76.78 76.13 77.03 77.06 76.93 77.38 77.64 78.14 78.65 78.78
78.02 78.21 78.08 78.52 78.79 78.49 78.30 77.93 77.80 77.54 77.53 77.08 76.53 69.23 67.60 73.28 76.22 77.13 77.21 77.38 78.09 79.00
78.12 78.04 78.35 78.64 78.94 78.46 78.40 78.13 77.76 77.53 77.80 78.29 78.35 66.77 65.41 67.77 75.92 75.94 77.03 78.06 77.55 77.28
78.22 77.90 78.52 78.63 78.65 79.09 78.26 78.46 77.98 77.58 78.73 79.00 78.60 66.25 63.90 65.90 76.17 76.91 77.58 78.05 78.05 78.59
78.21 77.84 77.79 77.93 78.14 78.24 77.86 77.95 77.85 77.80 78.74 78.85 79.10 63.99 63.06 66.51 75.92 75.91 77.59 77.66 78.47 79.14
78.64 78.32 78.13 78.29 78.55 78.91 78.14 77.55 77.44 77.49 78.56 74.18 78.54 65.34 61.02 66.57 75.82 76.14 75.43 78.49 79.65 68.04
78.58 78.83 78.94 79.27 79.44 79.02 77.90 78.11 78.27 77.89 78.90 79.18 77.26 77.09 60.26 59.30 76.00 75.38 75.04 75.01 75.16 76.23

GFSNIL_sfc_wetblb_051.txt.gz
Wetbulb
77.82 74.08 72.92 76.31 74.71 73.80 73.49 74.59 80.38 78.68 78.45 78.78 78.97 78.27 79.61 77.44 76.76 78.51 76.52 76.96 78.07 74.35
77.44 76.18 74.16 76.04 78.11 76.44 77.97 75.20 77.87 78.33 78.14 78.26 78.22 79.35 80.34 76.63 77.63 79.03 78.02 78.25 77.90 76.17
77.60 78.18 77.62 78.43 79.22 77.92 78.71 79.21 77.64 77.94 77.49 77.88 78.78 78.94 80.68 78.62 79.44 79.02 77.41 75.95 79.86 79.18
76.65 77.18 77.99 78.46 79.03 79.40 79.23 79.99 79.39 78.75 78.21 77.89 77.76 79.12 80.22 79.76 78.94 77.75 79.11 78.84 78.21 78.72
77.28 77.19 76.81 77.47 78.74 79.84 79.72 79.29 79.51 79.26 78.98 78.42 78.08 79.59 79.56 77.83 77.37 77.47 77.46 77.86 78.80 77.14
76.63 77.16 76.74 77.95 78.26 79.38 79.71 79.74 77.85 79.46 79.56 78.58 78.33 79.17 79.80 79.72 78.67 78.30 78.24 78.33 78.64 78.32
76.96 77.40 77.22 78.08 78.87 79.05 79.69 79.65 79.48 80.03 79.90 79.10 78.78 78.56 78.40 78.94 79.12 79.06 78.21 79.17 79.26 79.13
77.70 77.70 77.98 77.78 79.04 79.20 79.65 79.81 80.33 80.11 80.01 79.75 77.97 76.78 78.27 79.13 79.16 79.26 78.68 79.07 79.13 79.29
77.75 77.94 77.74 78.02 78.73 79.44 79.62 79.86 80.12 79.91 79.86 79.14 76.92 69.92 68.01 75.13 78.11 78.96 79.11 78.94 79.69 80.05
78.27 77.91 78.27 78.51 78.97 79.04 79.38 79.98 79.97 79.84 80.04 79.53 79.69 66.72 65.59 68.05 76.63 77.88 78.48 79.17 79.45 78.62
78.83 78.39 78.95 78.99 78.93 79.18 79.40 79.35 79.41 80.00 80.25 80.03 79.94 66.91 63.50 66.02 77.06 77.15 78.07 79.45 79.68 79.77
78.97 78.84 79.21 78.87 79.13 79.54 79.54 79.57 79.56 80.17 80.34 80.20 80.18 65.11 62.99 66.26 76.75 76.42 77.93 78.81 79.04 79.24
79.35 79.42 79.06 79.49 79.75 80.28 80.07 79.77 78.91 79.43 80.53 76.21 80.50 65.84 61.54 66.29 76.31 76.38 75.93 78.50 79.35 69.08
79.77 79.92 80.02 80.40 80.48 80.34 79.91 78.73 79.77 79.36 80.11 80.58 78.87 79.30 60.69 59.32 77.48 76.22 75.53 75.36 75.03 76.40

GFSNIL_sfc_wetblb_054.txt.gz
Wetbulb
76.40 73.68 74.31 76.61 75.21 76.84 75.94 75.71 77.74 78.55 77.89 79.03 79.20 78.96 79.15 77.49 77.25 77.95 77.49 77.61 77.72 76.10
75.88 75.49 73.31 75.75 77.26 76.97 77.14 76.71 77.76 78.27 78.88 78.80 78.59 78.23 78.88 77.15 77.32 78.46 78.38 77.54 78.21 77.27
73.70 75.15 75.64 73.30 75.61 75.67 78.50 78.16 77.65 78.09 77.96 78.46 78.96 78.75 78.95 77.66 77.70 78.32 77.24 76.96 77.17 77.42
74.29 74.48 74.01 75.31 72.97 77.20 76.45 80.21 79.08 79.50 78.58 77.78 77.70 78.90 78.95 77.74 77.71 77.23 77.43 78.38 78.38 77.37
75.31 74.43 73.95 72.72 76.51 76.45 78.57 77.99 80.71 78.71 79.58 78.12 77.87 78.11 77.90 77.33 75.95 76.43 76.79 77.24 77.33 77.57
74.91 75.01 74.90 74.01 74.50 77.09 76.59 78.08 77.45 79.19 77.81 78.10 77.09 77.37 77.93 77.82 76.91 76.86 77.31 77.11 77.32 77.00
74.72 74.84 74.52 75.73 74.51 76.37 77.62 77.05 77.48 77.56 78.22 78.01 77.40 76.95 77.74 78.03 77.44 77.20 76.98 77.94 77.30 77.78
75.94 75.60 75.23 75.20 75.78 75.23 76.34 77.06 77.75 77.46 78.09 78.15 77.48 76.80 76.76 77.01 77.55 77.29 77.08 77.36 77.84 77.96
75.70 75.62 75.65 75.11 75.80 76.23 76.00 76.91 77.37 77.56 77.63 77.72 77.39 71.07 68.84 74.53 76.20 77.58 76.97 76.52 77.14 78.30
75.87 75.92 75.44 76.23 75.35 76.07 75.80 76.71 76.94 77.43 77.90 77.51 77.75 67.80 66.62 68.69 75.83 76.15 76.94 77.52 77.24 77.35
75.91 75.62 76.14 75.65 75.86 75.32 76.44 76.23 76.79 77.31 77.84 77.90 78.12 67.78 63.78 66.40 74.12 75.65 76.52 77.06 76.90 77.09
75.67 75.76 75.70 75.36 75.35 75.77 76.44 76.74 76.73 77.46 77.85 77.73 78.01 65.62 64.03 64.91 72.94 74.15 74.76 75.37 75.97 77.25
75.93 76.47 75.64 75.91 75.93 76.49 76.91 76.92 77.33 77.26 77.98 74.69 78.06 66.28 63.02 64.97 74.73 74.00 74.10 75.60 76.29 67.75
77.22 76.57 77.26 77.28 77.43 77.20 77.26 77.37 77.12 77.07 77.67 78.47 77.35 77.23 61.02 59.73 75.16 74.92 74.75 74.65 74.90 76.17

GFSNIL_sfc_wetblb_057.txt.gz
Wetbulb
71.71 69.99 70.58 71.50 71.50 73.56 73.47 73.17 74.40 74.35 74.53 73.66 74.63 74.60 74.09 72.74 72.84 73.26 72.10 71.76 72.36 71.12
72.94 69.88 69.61 70.51 71.08 70.51 71.95 73.42 73.80 75.27 74.55 74.98 74.55 74.69 74.55 72.56 73.27 73.39 73.33 71.75 71.47 72.29
71.44 72.94 70.15 69.95 70.69 70.83 70.72 71.89 74.15 75.54 74.71 75.38 74.68 73.76 74.74 72.44 73.48 72.90 73.29 73.47 72.85 72.16
70.32 72.39 71.79 70.17 68.92 71.48 70.85 74.25 75.13 75.48 74.83 75.10 74.85 74.67 73.98 72.80 73.75 72.82 73.09 73.65 72.46 72.79
71.04 71.03 71.97 70.65 69.78 68.53 71.38 71.97 74.73 75.46 74.88 74.20 73.78 74.57 73.92 73.63 73.57 72.91 73.39 73.21 72.74 72.74
71.90 70.27 70.98 70.52 70.30 68.91 72.85 71.58 73.97 74.66 74.55 74.53 74.43 73.66 74.04 74.19 73.89 73.15 73.35 73.48 73.53 73.14
71.94 71.98 70.25 70.58 69.68 71.99 71.47 74.30 73.40 75.10 74.31 74.50 73.74 74.18 74.20 74.70 74.37 73.70 73.52 74.55 74.15 74.18
72.59 72.46 72.42 71.04 70.71 68.86 73.47 72.48 74.06 73.98 74.84 74.52 74.77 74.43 73.61 74.78 74.85 74.25 73.88 73.32 74.18 74.43
72.98 72.59 72.37 72.40 72.67 70.70 70.33 74.09 73.45 73.69 74.06 74.61 75.65 70.52 69.13 72.73 74.32 74.90 74.45 73.96 73.64 74.60
73.03 72.88 72.28 72.45 72.06 72.68 70.65 71.75 73.83 74.30 74.48 74.34 75.25 67.99 67.38 69.08 73.83 73.41 74.55 74.49 74.27 74.23
73.06 73.01 73.21 72.94 72.16 72.41 73.27 72.02 72.42 73.68 74.55 74.55 75.17 67.69 65.49 67.07 72.16 73.23 73.40 74.60 74.88 74.38
73.09 72.88 73.24 72.28 72.73 72.42 73.13 73.25 73.03 74.08 74.48 74.82 75.16 65.78 64.60 64.91 68.54 71.47 72.47 73.60 74.24 74.52
73.19 73.45 73.12 73.18 72.86 73.84 72.98 73.01 74.15 73.59 74.66 72.61 75.21 66.13 63.60 64.56 72.25 69.38 70.88 71.86 72.00 67.00
73.25 73.44 73.72 73.91 73.91 73.70 73.65 73.20 73.23 73.76 74.28 75.12 74.53 74.72 61.82 60.47 73.55 72.67 71.11 71.12 71.63 73.04

GFSNIL_sfc_wetblb_060.txt.gz
Wetbulb
68.47 68.46 69.40 69.83 71.34 72.20 72.68 73.06 73.94 73.10 73.29 73.36 72.77 72.32 72.12 71.65 71.21 72.01 70.72 70.34 70.93 69.85
71.38 68.98 68.24 70.44 71.12 71.37 72.47 72.35 73.84 73.27 73.19 72.83 73.19 72.75 72.30 71.03 71.01 71.74 71.80 70.86 69.80 70.52
70.11 71.54 68.06 68.92 69.24 70.73 70.85 71.91 72.68 73.47 73.23 72.94 73.07 72.99 72.42 71.17 71.80 71.75 71.41 72.18 71.58 70.12
69.35 70.43 70.25 68.40 68.77 69.65 69.60 70.46 71.74 73.82 73.27 73.37 73.10 72.38 72.87 71.35 71.39 71.68 71.28 71.65 71.27 71.44
69.10 69.79 71.08 70.54 68.90 68.29 69.38 71.83 73.19 74.07 73.42 73.25 73.84 73.01 72.03 72.06 72.36 71.97 71.16 71.60 71.98 71.89
69.72 68.84 69.65 71.15 69.79 67.58 68.12 69.47 73.23 73.63 73.75 73.52 73.72 73.50 73.16 72.70 72.30 71.77 71.79 72.23 72.10 71.85
70.86 69.85 68.87 70.26 70.71 69.97 67.37 68.38 70.61 73.54 73.50 73.52 73.47 73.32 73.55 72.93 72.24 71.99 72.09 72.52 72.68 72.75
71.24 71.62 70.31 68.88 70.24 69.25 70.01 69.56 70.43 72.08 73.29 73.67 73.46 73.41 72.48 72.80 72.52 72.19 72.12 72.37 72.84 73.31
70.90 71.46 71.29 69.98 68.97 69.24 68.57 70.83 70.09 72.35 73.25 72.90 74.10 69.23 68.70 71.83 72.70 72.53 72.34 72.28 72.24 72.53
72.12 71.32 71.06 71.13 69.94 69.02 68.66 67.91 71.13 70.36 72.56 73.43 73.45 67.05 66.45 68.75 73.01 73.17 73.26 72.94 72.97 72.81
72.43 71.90 71.67 71.12 70.92 70.55 70.52 68.35 67.99 71.88 71.30 72.32 73.72 66.40 64.98 66.89 72.37 72.35 72.53 73.86 73.78 73.31
72.94 72.34 71.89 71.14 71.05 71.35 71.62 71.09 69.02 70.69 73.08 72.55 72.65 64.62 63.73 65.20 71.39 72.03 71.85 72.23 73.27 73.80
70.71 72.78 72.16 72.08 71.68 72.02 71.73 71.70 72.11 70.91 71.10 70.46 73.72 64.75 62.52 64.30 72.71 70.92 71.07 71.91 72.10 66.13
68.15 71.46 72.87 72.79 72.99 72.51 72.04 71.84 72.04 71.97 72.06 72.62 72.36 72.75 61.40 60.61 73.05 73.01 71.24 70.38 70.79 71.67

GFSNIL_sfc_wetblb_063.txt.gz
Wetbulb
67.42 68.33 68.01 68.70 68.85 69.85 70.83 72.04 72.26 71.67 72.14 71.72 71.31 71.76 70.60 70.84 70.25 71.11 69.47 69.71 69.88 68.28
67.45 67.17 67.84 68.89 69.68 69.82 70.98 72.11 72.55 72.09 71.90 72.37 72.10 71.35 70.95 70.60 70.13 70.46 70.69 69.81 68.83 69.14
69.53 68.45 67.24 68.22 69.57 70.16 70.76 71.29 71.91 72.30 71.70 72.05 72.10 71.88 71.07 70.16 70.26 69.71 70.48 71.08 70.31 68.96
68.34 70.00 68.91 67.24 68.08 69.07 70.11 70.76 70.76 72.34 71.91 71.36 71.80 71.89 71.49 70.59 70.36 70.70 70.20 70.16 70.40 70.08
68.28 68.56 69.83 68.56 67.51 67.95 68.32 68.96 69.80 71.12 72.28 71.79 72.03 71.76 71.60 71.37 71.71 70.19 70.18 70.46 70.24 70.55
68.08 67.82 68.26 69.42 69.12 67.14 67.50 68.31 70.72 71.50 72.09 71.77 71.99 72.19 71.65 71.53 71.46 71.34 71.31 71.16 70.59 70.57
68.61 68.13 68.29 68.69 69.29 69.17 67.05 67.53 68.49 72.01 72.62 72.59 72.23 72.62 72.56 72.02 71.28 70.99 71.22 71.47 71.42 71.73
69.87 69.34 68.53 68.23 68.68 68.82 68.79 67.82 67.55 69.52 72.63 72.68 72.85 72.95 72.15 72.33 72.10 71.44 71.17 71.33 71.60 71.99
69.76 70.22 69.10 68.18 67.80 68.23 68.35 68.76 67.22 67.99 69.39 71.95 73.17 68.84 67.99 71.15 71.96 71.77 71.34 70.72 70.86 71.72
69.50 69.68 70.19 69.55 68.11 67.55 68.02 68.21 68.31 68.73 69.67 69.73 71.80 66.23 65.99 67.73 72.02 71.27 71.44 71.48 71.34 71.19
70.12 69.43 70.09 70.28 69.33 68.18 68.09 67.97 67.19 67.67 68.82 70.39 71.20 65.59 64.27 66.21 71.34 72.03 71.84 72.08 72.04 71.74
71.16 70.73 70.09 70.06 69.94 70.10 68.81 68.16 68.12 67.40 67.56 68.76 69.94 63.57 62.94 64.44 70.32 71.17 71.44 71.66 71.95 72.73
69.74 71.58 71.25 70.98 70.56 70.77 70.58 69.69 69.76 68.52 67.66 66.40 69.62 62.14 61.82 63.72 71.59 71.08 71.42 71.87 71.17 65.17
66.41 66.83 71.56 71.96 71.54 71.12 70.63 70.84 70.39 70.41 69.59 68.84 69.73 70.66 59.44 59.64 71.69 71.75 71.20 71.05 71.21 71.57

GFSNIL_sfc_wetblb_066.txt.gz
Wetbulb
68.97 69.29 69.59 69.58 69.63 70.01 71.13 72.49 73.72 73.60 73.20 72.78 73.07 72.60 72.14 72.49 73.28 72.68 72.01 72.72 72.75 70.81
68.08 68.54 68.83 69.73 70.57 70.49 71.78 72.59 73.54 73.28 73.32 73.28 73.24 73.06 73.01 72.30 72.20 72.79 73.24 72.22 72.05 72.06
68.17 68.43 68.98 69.58 70.04 70.89 71.66 72.67 73.50 73.54 73.40 73.40 73.86 72.86 73.02 72.36 72.37 72.33 72.41 72.87 72.54 71.73
68.89 68.11 68.16 68.78 70.04 71.22 72.03 72.21 72.67 73.48 73.48 73.19 73.16 73.78 73.15 72.91 72.51 72.15 72.17 72.27 72.83 73.02
69.18 69.86 68.46 68.14 68.93 70.10 70.79 71.85 72.71 72.88 73.50 73.18 73.03 72.86 73.28 72.91 73.15 72.17 71.97 72.60 72.30 72.56
68.29 68.62 69.65 69.44 68.84 69.11 69.55 69.93 70.81 72.10 72.50 73.18 73.32 73.28 73.42 73.37 73.35 73.20 72.66 72.67 72.56 72.80
68.34 68.10 68.76 69.67 70.01 68.96 69.37 69.45 69.70 71.35 72.14 73.07 73.35 73.51 73.51 73.06 73.10 73.23 73.27 73.49 73.39 73.50
68.92 69.12 68.81 68.77 69.33 70.11 69.35 69.47 69.72 69.93 72.10 73.31 73.54 73.23 73.43 73.63 73.11 72.93 72.88 73.44 73.57 73.65
69.90 69.70 68.87 68.57 68.61 69.19 69.77 69.45 68.87 69.18 70.24 71.78 72.78 68.58 67.85 71.92 73.44 73.51 73.22 72.82 73.20 74.04
70.14 70.01 69.83 69.48 68.75 68.35 68.59 69.64 69.10 68.55 69.11 70.20 71.67 65.71 66.00 67.65 73.75 73.35 73.21 73.48 73.34 72.86
69.40 69.67 70.07 70.29 69.14 68.57 68.68 68.61 68.63 69.17 69.24 69.41 70.12 64.38 64.11 66.26 72.55 73.15 72.95 73.10 73.17 73.22
69.72 69.46 69.70 69.81 70.16 69.81 68.92 68.50 68.78 68.94 68.99 69.30 69.89 62.18 62.20 64.82 71.45 71.84 72.53 73.20 73.65 73.55
69.17 70.94 70.08 69.61 70.29 70.87 70.71 69.51 69.41 69.27 68.95 66.44 69.45 61.61 60.40 63.15 70.81 70.17 70.93 72.64 73.12 65.54
67.35 68.12 71.69 71.70 71.27 71.26 71.07 71.10 70.18 69.56 69.92 68.99 67.74 68.60 58.67 59.10 70.85 70.58 70.37 70.83 71.69 73.11

GFSNIL_sfc_wetblb_069.txt.gz
Wetbulb
74.72 73.93 73.98 74.91 74.41 74.41 74.58 75.52 77.61 77.47 77.46 76.92 76.94 76.61 76.72 75.97 75.88 76.27 75.66 75.95 76.88 75.56
74.27 74.50 74.43 75.27 75.52 74.60 76.19 75.56 76.86 77.47 77.19 77.01 77.02 76.96 76.84 75.45 76.02 76.84 76.52 75.93 76.25 76.11
73.38 74.27 74.61 75.11 75.14 75.61 76.03 76.41 76.34 76.80 77.19 77.28 77.27 77.08 76.87 76.27 76.63 76.17 75.63 75.69 76.29 75.93
72.76 73.12 73.75 73.78 74.78 75.74 76.33 76.50 76.52 76.83 76.80 77.19 76.96 77.31 77.03 76.65 76.33 76.06 76.16 76.25 76.07 76.17
73.53 73.18 72.71 72.95 73.89 75.50 75.73 76.44 76.83 77.08 76.90 77.19 77.03 77.30 76.84 76.56 75.87 75.67 75.62 75.77 75.92 75.50
72.62 72.79 72.90 73.18 73.48 74.00 74.80 75.86 75.95 76.94 76.80 76.93 76.94 77.04 77.24 77.02 76.76 76.41 76.05 75.91 76.13 76.00
71.11 72.08 73.13 74.45 74.16 73.62 74.54 74.47 75.05 75.66 76.41 76.91 77.17 77.31 77.19 76.97 76.99 76.94 76.71 76.63 76.55 76.52
72.90 72.73 71.55 72.23 74.76 74.21 74.08 74.14 74.97 74.47 74.94 75.62 75.67 75.59 76.64 76.92 76.80 76.69 76.55 76.72 76.72 76.79
73.67 74.07 73.72 73.67 73.21 74.68 74.23 74.02 74.56 73.83 73.97 74.28 73.88 68.19 68.16 73.87 76.45 76.61 76.45 76.18 76.58 77.14
73.18 73.40 73.89 73.49 73.65 73.78 73.83 74.37 73.67 73.82 74.13 74.31 75.39 65.51 65.93 68.34 75.71 76.30 76.83 76.81 76.66 76.22
72.27 72.50 73.57 73.35 73.17 73.38 73.42 73.76 73.82 73.61 74.37 74.38 74.25 64.47 63.76 66.18 74.86 76.28 76.37 76.82 77.05 76.83
72.20 72.16 72.57 72.57 73.66 73.44 72.75 72.71 73.25 73.39 74.00 73.77 74.22 62.40 61.77 65.40 73.73 74.09 76.27 76.74 76.71 77.22
71.43 70.96 72.82 72.92 73.34 73.86 73.88 72.89 72.79 72.60 73.49 70.32 74.27 63.99 59.97 63.75 71.93 72.79 72.83 75.58 76.84 66.75
68.71 70.64 71.17 71.80 74.45 73.74 73.55 73.69 73.67 73.00 73.56 73.96 72.50 72.86 59.40 58.53 72.18 72.28 72.56 72.05 72.64 73.38

GFSNIL_sfc_wetblb_072.txt.gz
Wetbulb
77.17 75.64 75.48 76.02 74.72 75.11 75.12 76.04 77.82 77.74 77.22 77.69 77.63 77.35 77.32 76.30 75.78 76.63 76.22 75.91 77.14 75.79
76.99 76.42 75.66 76.49 76.54 75.52 76.88 76.12 77.98 77.28 76.99 77.05 78.00 78.03 78.37 76.50 76.51 76.77 76.96 76.35 76.61 75.95
76.38 76.78 76.76 76.80 76.55 76.55 76.31 77.42 77.41 78.08 77.79 77.09 77.78 78.58 78.48 76.55 77.36 76.87 75.82 75.15 76.61 77.06
75.85 76.11 76.71 76.32 76.58 76.93 76.87 77.41 77.91 78.04 78.18 77.61 77.22 77.96 78.64 77.69 77.04 77.21 76.88 76.68 76.36 77.05
75.75 76.01 75.60 75.93 76.29 76.98 76.79 77.25 78.03 78.76 78.23 78.21 77.82 78.31 77.95 76.72 76.53 76.28 76.18 76.60 76.65 76.16
74.60 74.96 75.41 75.60 76.26 76.38 76.54 76.84 77.09 77.60 77.99 78.06 77.91 78.39 78.59 77.57 76.96 77.28 76.90 77.06 76.70 76.82
74.08 74.51 75.28 75.85 76.29 76.14 76.51 76.27 76.60 77.15 77.63 77.81 77.10 77.76 78.05 78.26 77.40 77.44 77.12 77.79 77.50 77.09
74.85 75.39 75.49 75.74 76.32 76.50 76.36 76.20 76.39 76.28 76.74 77.38 77.21 76.30 77.37 78.14 78.10 77.73 77.64 78.01 78.30 77.92
75.37 75.63 75.52 75.66 75.28 76.31 76.40 76.44 76.44 75.77 75.53 75.57 75.22 69.38 68.22 74.35 77.62 77.82 77.64 77.28 78.25 78.45
73.19 74.63 75.37 75.90 75.75 75.24 75.10 76.35 76.70 76.04 76.00 76.07 76.38 66.05 65.16 68.55 75.87 76.29 76.99 77.41 77.24 77.34
72.25 73.14 74.32 75.35 74.99 75.62 75.69 75.48 76.11 76.41 77.31 77.21 76.62 65.38 63.71 65.83 75.50 76.20 77.34 77.43 77.50 78.11
67.50 72.21 72.86 73.71 74.90 74.60 74.97 75.29 75.30 75.62 76.56 77.13 77.46 63.07 62.70 66.09 74.55 74.28 76.37 77.54 78.40 78.87
67.71 68.04 70.22 73.27 75.35 76.98 75.70 75.19 75.05 75.39 76.19 72.13 76.53 65.37 60.28 65.09 73.67 74.09 73.03 76.16 77.89 67.84
64.99 67.11 66.48 70.10 74.85 74.77 76.05 76.61 75.95 75.03 76.24 76.43 75.06 75.07 59.49 58.57 73.53 73.26 73.36 73.04 72.75 73.47

GFSNIL_sfc_wetblb_075.txt.gz
Wetbulb
77.91 75.83 75.16 76.32 75.75 75.27 74.52 73.45 79.13 77.58 77.10 77.32 77.58 77.51 77.79 76.63 75.46 78.40 75.93 75.93 78.09 75.68
78.22 77.20 76.55 79.26 77.25 75.92 77.58 73.99 78.05 77.67 77.23 77.49 77.67 77.83 78.73 75.63 77.03 78.17 77.20 76.58 77.20 76.34
77.30 77.79 77.43 77.13 77.48 77.66 76.66 77.27 74.49 77.55 77.63 77.33 77.46 77.58 78.30 78.03 78.20 77.47 76.00 74.53 78.39 78.43
76.96 77.38 77.60 76.72 77.00 77.42 77.13 77.62 77.48 79.47 78.08 77.79 77.26 77.39 78.43 78.82 77.59 76.64 77.45 78.10 76.84 77.70
77.18 77.22 76.85 77.06 77.23 78.34 78.13 77.41 77.73 78.12 77.86 77.77 77.42 78.28 77.98 76.76 76.09 76.47 76.05 76.56 77.83 75.93
76.43 76.60 76.65 76.99 77.20 78.63 78.31 77.87 76.35 77.58 77.97 77.25 77.13 78.43 78.79 78.31 77.09 76.95 76.55 76.64 77.04 76.72
76.09 76.26 76.12 77.57 78.41 77.26 78.89 78.03 77.64 78.09 78.82 78.05 77.03 77.34 77.45 77.99 77.74 77.83 77.49 77.50 77.81 77.53
76.22 76.87 75.81 77.35 78.59 78.28 78.56 78.35 78.15 78.11 78.37 78.21 77.24 75.97 78.21 78.31 77.73 77.92 77.82 78.27 77.95 78.65
75.02 75.39 76.94 77.24 77.30 78.45 78.34 78.82 79.09 77.54 77.80 77.56 75.39 69.50 68.02 74.77 78.09 78.77 79.12 78.74 79.59 79.88
71.52 74.16 74.56 76.49 76.49 77.04 77.15 78.15 78.96 78.39 77.83 78.06 78.26 67.44 65.29 68.35 75.94 77.74 79.11 78.93 79.62 77.96
64.62 69.26 72.32 74.85 74.93 76.14 76.32 76.16 77.52 77.69 78.87 78.84 78.37 66.66 63.88 65.82 77.25 77.16 77.76 78.69 79.37 79.21
61.52 64.83 67.97 68.15 73.17 77.03 76.26 75.82 75.87 76.81 78.30 78.61 78.94 64.71 63.30 65.52 74.79 74.88 76.77 77.97 78.13 78.65
59.98 62.65 67.21 67.94 67.10 72.06 76.07 75.87 75.66 76.05 77.18 73.68 78.32 67.84 61.44 64.48 74.76 74.48 74.89 76.25 77.18 68.24
61.67 60.94 63.14 67.55 68.14 68.81 71.50 75.13 75.65 75.06 76.66 77.88 76.58 77.41 60.71 59.28 75.03 75.10 74.75 74.61 75.02 75.55

GFSNIL_sfc_wetblb_078.txt.gz
Wetbulb
78.21 76.40 75.22 72.75 75.48 73.84 71.25 74.40 78.44 78.20 78.24 78.87 78.05 78.43 78.58 77.84 77.18 77.61 76.57 76.43 76.79 76.27
77.39 76.89 77.47 77.55 78.85 74.96 73.03 75.89 76.27 77.32 77.57 78.14 76.40 78.53 78.08 75.50 76.42 77.39 75.64 77.72 76.67 76.08
77.41 77.98 78.04 78.89 78.33 79.58 72.89 72.41 72.24 72.17 75.30 77.60 76.28 77.10 77.87 77.36 74.26 75.51 74.67 75.33 76.55 77.26
77.02 77.69 78.09 77.84 79.32 78.82 79.44 72.81 70.82 67.27 68.37 74.40 77.49 78.42 78.02 76.47 75.11 75.83 76.17 77.98 76.72 76.35
77.57 77.55 77.55 77.39 78.00 79.41 78.64 78.88 74.26 70.13 70.25 74.86 76.70 76.85 77.43 75.94 76.39 75.27 75.76 76.52 75.97 76.37
76.75 77.20 77.09 77.62 77.75 78.43 78.58 78.58 77.73 77.92 78.44 78.37 77.19 77.75 76.68 77.27 77.03 76.02 75.86 77.43 77.05 76.40
76.42 76.57 76.83 77.74 77.76 77.76 78.65 78.04 77.74 78.05 78.10 77.64 77.79 77.70 77.17 76.89 77.16 76.83 76.77 77.13 77.69 77.39
69.71 76.53 79.03 78.79 77.99 78.34 77.66 77.81 77.99 77.82 77.38 77.49 76.88 76.31 76.86 77.38 76.80 75.83 75.28 76.32 76.98 77.45
70.54 72.71 74.54 76.93 77.41 78.52 77.68 77.95 77.63 77.32 77.04 76.41 76.50 70.25 68.60 74.73 76.58 76.92 76.63 75.52 76.96 77.85
66.20 68.18 70.70 74.49 76.61 77.45 77.21 77.85 77.30 77.06 77.07 76.74 76.85 68.40 65.21 67.39 75.64 76.67 76.96 76.72 76.36 76.69
61.57 63.85 68.36 70.75 69.55 72.20 76.69 76.99 76.72 76.51 77.21 77.35 77.22 67.88 65.77 65.51 73.57 75.60 75.69 76.43 76.89 76.48
60.32 60.17 63.05 67.75 68.61 69.62 71.84 74.81 75.60 75.86 76.31 76.70 77.18 65.74 63.54 65.84 73.15 73.42 74.57 75.69 76.00 75.68
63.29 62.30 61.31 62.27 66.77 68.75 70.37 71.16 74.13 74.78 75.73 72.20 76.27 67.87 63.31 64.02 73.94 73.39 73.12 73.77 74.62 68.04
62.08 62.29 63.67 64.37 63.69 67.07 67.55 69.12 71.03 71.50 74.68 75.26 74.66 75.25 61.92 60.58 74.73 74.55 73.78 73.66 73.64 74.06

GFSNIL_sfc_wetblb_081.txt.gz
Wetbulb
72.12 71.01 70.42 70.05 70.23 71.38 70.05 71.95 72.95 74.01 73.74 73.32 72.90 72.85 72.67 71.57 72.38 72.13 70.58 68.84 70.07 71.43
72.25 72.21 70.67 68.92 69.98 72.17 70.46 73.15 72.57 72.74 73.55 73.54 73.52 73.15 73.10 71.47 71.47 71.69 71.51 71.30 71.34 70.31
73.76 73.27 72.99 72.70 72.57 71.59 71.76 71.69 70.64 69.82 70.43 72.67 73.22 74.67 72.90 72.04 71.64 71.21 71.37 70.30 69.85 71.41
73.63 73.91 73.41 73.27 73.47 72.16 71.32 69.49 69.34 69.13 68.16 70.01 72.55 73.17 72.66 72.15 72.10 71.37 70.83 71.98 72.21 71.71
73.88 73.97 73.59 73.40 73.00 73.55 71.94 71.45 69.71 69.35 67.62 68.64 71.62 73.07 72.86 71.97 72.23 71.92 71.28 71.32 71.86 70.54
72.16 73.38 72.83 73.72 74.00 74.42 72.59 70.28 68.42 67.45 68.45 71.18 71.82 72.70 73.30 73.09 73.12 72.39 72.11 71.79 71.83 71.89
67.79 68.71 71.03 73.65 74.76 74.73 74.76 73.81 73.32 73.29 73.11 73.45 73.45 72.82 73.76 73.17 72.43 72.95 72.88 72.98 73.37 72.95
68.92 67.05 67.86 69.78 72.43 74.01 74.63 74.70 74.37 73.77 74.16 73.90 73.97 74.97 73.67 73.32 72.46 72.61 72.31 73.11 73.35 73.62
65.64 68.38 69.59 69.92 70.81 72.05 72.87 73.97 74.69 73.39 73.79 73.46 75.10 70.28 68.78 72.26 73.52 73.29 72.17 71.28 71.99 73.42
62.47 63.37 66.29 68.78 68.26 67.72 71.49 72.54 73.31 73.73 74.05 72.84 73.40 68.17 66.03 67.40 73.26 74.07 73.38 72.55 72.66 73.15
60.91 60.58 62.01 66.11 66.58 66.22 68.20 69.93 72.41 72.34 73.09 73.47 74.37 67.60 66.15 66.25 67.77 69.68 72.89 74.12 74.22 73.57
61.60 60.86 60.65 60.89 62.20 65.98 66.80 67.93 69.89 72.59 72.61 72.28 72.74 66.63 63.24 64.82 69.09 69.52 70.19 72.28 72.85 73.64
59.29 59.01 58.70 61.21 61.42 61.95 65.75 66.06 66.96 69.05 70.11 70.06 72.45 67.16 62.26 63.54 70.20 68.47 71.09 70.39 71.27 66.77
57.55 57.45 57.36 57.82 58.78 60.48 60.90 62.76 65.20 65.91 67.81 70.13 71.91 72.38 63.49 60.05 69.34 72.07 70.36 71.82 71.90 71.69

GFSNIL_sfc_wetblb_084.txt.gz
Wetbulb
69.73 68.83 67.15 68.76 70.02 70.27 70.54 70.77 71.84 72.60 72.40 72.21 72.10 71.49 71.09 70.39 70.70 70.61 70.54 68.09 68.71 69.35
70.94 70.07 69.77 69.57 69.00 69.40 70.28 71.36 71.94 73.19 72.73 72.61 71.77 71.39 71.89 70.24 70.04 70.72 70.02 69.84 70.19 69.16
71.02 71.28 70.66 69.67 68.04 69.83 69.45 72.64 71.61 71.85 72.50 72.40 72.38 72.02 72.04 71.12 70.09 69.76 69.52 68.69 68.34 69.02
72.15 71.91 71.61 71.39 71.54 71.57 70.90 71.20 70.72 69.87 69.31 69.95 71.05 72.37 72.12 70.67 70.85 70.29 69.54 69.29 70.86 70.25
70.55 71.30 71.58 71.80 71.86 71.46 70.67 70.18 69.61 68.29 67.54 67.49 69.69 71.39 71.65 70.92 71.82 70.81 70.02 70.20 69.63 70.47
68.57 70.35 70.34 70.98 71.70 72.11 71.08 70.66 69.74 68.22 67.31 66.87 68.51 70.27 71.95 71.65 71.43 71.04 71.14 70.64 69.99 70.51
66.92 66.79 67.44 69.42 70.53 71.17 70.86 70.33 69.04 67.67 67.41 67.82 68.80 70.85 71.91 72.23 71.41 71.95 71.90 71.30 71.29 71.15
67.62 67.42 68.70 68.43 67.26 67.66 70.55 72.36 70.26 69.94 70.35 70.21 71.85 72.49 71.53 72.34 71.18 70.72 70.98 71.95 72.43 72.43
64.87 65.73 66.41 68.43 67.91 68.12 68.34 71.00 72.18 71.78 72.15 72.61 74.25 69.24 68.56 71.73 71.76 70.46 70.78 70.49 71.02 71.61
60.68 60.97 61.89 65.38 67.22 66.14 66.86 68.86 70.53 71.51 71.50 71.78 72.17 67.89 66.31 67.41 70.84 71.79 71.68 71.72 71.17 70.83
60.23 60.50 61.31 61.94 62.24 63.48 66.34 66.90 67.87 69.63 70.75 70.98 72.50 65.78 64.36 65.34 68.08 69.35 71.90 72.86 72.26 71.51
59.09 58.85 59.31 60.46 61.22 62.27 63.48 63.18 64.66 65.92 68.09 68.88 70.69 64.03 61.50 63.62 68.41 68.27 68.38 69.76 71.95 73.32
56.91 56.67 56.45 56.98 58.34 60.67 61.42 62.54 63.65 64.27 65.85 64.75 67.71 64.27 61.50 62.90 68.54 68.59 69.40 70.18 70.12 65.39
53.77 53.94 54.30 54.90 55.41 56.67 58.16 59.86 61.72 62.84 64.62 65.58 65.80 66.63 60.93 60.41 67.66 70.49 70.96 68.43 70.73 71.55

GFSNIL_sfc_wetblb_087.txt.gz
Wetbulb
68.67 67.04 66.59 68.12 69.15 69.29 69.83 70.23 71.31 71.42 71.54 70.85 71.12 70.02 69.87 70.39 70.18 69.92 69.95 68.33 68.60 68.72
68.85 68.22 66.94 67.34 69.28 69.65 70.18 70.62 70.79 71.51 72.02 71.44 71.21 70.50 70.83 69.88 69.03 69.74 69.37 68.81 68.91 68.61
69.67 69.90 69.09 69.10 68.38 68.38 69.08 69.90 70.75 71.57 72.11 71.64 71.46 70.33 70.38 70.24 69.48 69.01 68.83 68.28 67.76 67.35
70.02 70.20 69.49 69.46 69.05 68.19 68.96 69.79 71.70 70.95 71.09 71.19 71.17 71.30 70.95 70.44 70.27 69.42 68.62 68.52 69.06 69.71
70.03 70.65 70.03 69.92 70.57 70.43 70.75 70.16 69.45 70.00 69.23 68.96 69.20 70.34 70.93 70.91 70.96 69.91 69.10 69.17 68.48 68.99
66.77 68.14 69.34 69.85 70.74 71.20 70.50 69.47 69.11 68.99 68.01 67.58 66.90 69.06 70.68 71.10 70.59 70.13 69.92 69.45 69.33 69.05
66.74 66.58 66.92 67.15 67.36 68.93 70.66 70.37 69.51 68.59 68.11 67.13 66.85 67.94 69.82 70.91 70.59 70.70 70.99 71.19 70.18 68.92
67.24 66.86 67.78 67.74 67.44 67.72 67.99 69.61 71.19 69.66 68.44 67.81 67.75 69.31 68.79 70.65 71.16 70.20 70.03 70.62 71.31 71.27
65.39 64.91 64.97 67.62 67.17 66.73 66.95 67.92 68.10 69.95 70.28 70.18 71.75 67.59 66.92 69.73 70.94 71.12 70.29 69.72 70.00 70.69
61.72 61.32 61.33 62.01 62.70 64.91 65.73 65.85 66.21 67.22 69.68 70.47 70.87 66.28 64.80 67.35 71.05 71.35 70.84 70.39 70.60 70.79
60.73 60.57 61.12 61.57 61.10 61.47 62.76 62.44 63.10 64.02 65.12 67.74 69.63 63.56 62.07 64.14 67.47 68.95 69.47 70.81 71.47 70.94
56.61 56.45 56.49 56.26 57.79 59.48 60.21 61.07 61.95 63.35 63.86 64.58 64.98 62.29 60.84 62.61 67.30 68.12 68.57 68.79 69.46 71.44
53.61 54.79 54.33 54.01 55.08 56.83 57.81 59.73 61.66 62.17 63.24 62.59 64.17 61.82 59.42 60.62 67.23 67.96 68.28 69.47 69.65 64.30
49.77 50.88 51.71 52.93 52.43 53.09 53.99 55.24 56.41 59.12 60.78 61.43 62.22 63.21 56.94 56.21 64.41 67.26 68.66 69.36 69.38 70.66

GFSNIL_sfc_wetblb_090.txt.gz
Wetbulb
69.48 69.50 69.33 69.80 70.41 70.98 71.40 71.96 73.27 73.29 73.07 72.70 72.41 71.81 72.20 72.58 72.53 72.80 72.34 71.87 72.16 71.52
69.61 68.93 68.19 68.53 70.71 71.13 71.75 71.97 72.67 72.86 72.91 73.03 72.83 72.59 72.29 72.24 72.13 72.34 71.98 72.14 71.82 71.35
70.09 69.70 69.70 70.05 69.79 70.43 71.18 72.14 71.66 72.30 72.66 72.46 72.70 72.70 72.49 72.35 71.89 71.90 71.36 71.13 71.01 71.22
70.53 70.87 71.18 70.35 70.47 70.40 70.61 70.34 70.75 71.85 72.56 72.64 72.09 72.87 72.07 72.37 72.28 71.51 71.30 71.30 71.35 72.01
70.98 71.40 71.47 70.34 71.27 72.17 71.34 71.23 70.86 71.51 72.01 72.18 72.32 72.73 72.81 72.30 72.99 71.72 71.42 71.37 71.13 71.15
67.20 68.12 69.00 69.92 71.21 71.62 72.09 71.84 70.73 70.85 70.36 70.12 70.04 70.93 71.83 72.67 71.81 71.98 71.45 72.01 71.43 71.86
67.29 68.03 67.87 67.81 68.28 68.90 70.70 71.74 71.20 70.95 70.46 70.26 69.66 69.15 70.14 71.75 72.14 71.85 71.88 71.52 72.50 72.22
67.02 67.72 68.50 68.21 68.50 68.49 68.81 69.24 71.01 71.56 70.89 70.45 69.59 69.32 69.74 70.89 71.80 72.36 72.34 72.47 72.91 72.98
65.37 64.38 65.06 66.46 66.82 67.16 67.22 67.71 68.99 69.19 70.69 71.26 72.00 67.04 65.59 69.38 72.03 72.65 72.41 72.19 72.95 73.03
62.46 61.79 62.21 62.92 63.24 64.50 63.92 64.77 64.90 65.71 66.55 67.87 69.71 63.11 62.89 65.07 69.67 72.20 72.91 73.10 72.79 72.71
58.93 59.02 60.29 60.58 59.93 61.33 62.13 63.09 63.43 63.93 65.24 65.95 66.77 62.14 60.76 62.67 68.17 69.72 71.21 72.34 72.93 73.03
56.25 55.43 55.76 55.99 57.36 58.13 58.93 60.74 61.33 63.09 63.41 64.50 64.74 54.83 55.22 60.24 67.02 69.62 70.17 71.37 71.34 71.86
53.09 53.34 53.44 54.05 55.12 56.75 57.29 58.62 61.23 61.62 60.91 58.85 60.65 53.48 52.86 57.08 61.74 64.23 67.99 70.66 71.41 65.24
48.98 50.19 50.30 52.37 52.77 53.43 54.51 54.94 55.10 55.65 56.88 57.38 55.18 54.87 51.69 51.64 53.13 54.38 60.67 65.46 67.47 68.28

GFSNIL_sfc_wetblb_093.txt.gz
Wetbulb
75.01 73.88 74.54 75.24 74.94 74.37 75.67 77.43 77.53 77.05 76.97 76.50 76.53 76.06 76.24 75.31 76.14 77.08 76.48 75.11 76.44 75.91
74.52 74.43 74.39 74.97 75.52 75.48 75.84 75.34 76.33 76.92 76.77 76.89 76.61 76.36 75.77 74.82 75.67 76.42 76.05 75.75 76.35 75.37
75.02 75.03 74.86 74.32 74.00 74.68 75.61 75.66 75.89 76.12 76.25 76.53 76.68 76.60 76.35 75.61 75.75 75.78 75.41 75.14 75.33 75.53
74.65 74.91 74.87 74.61 74.87 74.89 75.06 74.81 75.14 75.64 75.40 75.99 76.09 76.20 76.00 76.37 75.93 75.24 75.57 75.39 75.16 75.39
73.46 74.31 75.00 74.66 74.97 75.42 74.92 75.17 75.09 75.00 75.27 75.25 75.42 76.43 76.11 75.36 74.86 75.27 75.03 75.39 75.01 74.67
69.82 74.09 74.91 74.75 75.20 75.33 75.46 75.93 75.65 75.27 74.97 75.21 75.04 75.30 75.72 75.85 75.57 75.13 75.58 75.31 75.46 75.11
69.60 70.78 72.17 72.62 73.04 73.81 75.21 75.69 75.80 75.81 75.45 74.64 74.59 74.22 73.86 74.21 74.98 75.18 75.55 75.83 75.85 75.85
68.79 70.33 71.16 71.58 71.73 71.90 72.76 73.49 75.25 75.46 75.31 75.11 74.21 73.63 73.60 73.48 73.61 74.10 74.89 75.43 75.68 76.11
68.69 66.37 66.27 69.88 70.57 70.58 70.62 71.09 71.95 72.99 73.08 73.11 71.65 64.09 65.03 69.66 73.68 74.63 74.93 75.21 76.14 76.30
64.33 64.87 64.15 64.59 65.98 67.04 67.48 67.91 67.97 68.50 70.15 70.40 69.23 60.28 61.11 64.41 74.06 74.81 76.12 76.27 76.77 76.41
60.33 61.00 62.80 63.41 62.65 62.98 64.49 65.50 66.19 66.59 67.55 65.28 59.30 56.12 58.82 61.95 71.73 73.42 74.44 75.12 75.45 76.32
56.84 57.20 57.93 58.06 59.69 60.98 62.60 63.39 64.60 65.04 67.19 61.23 56.38 53.27 55.00 65.07 70.11 70.97 71.63 72.70 73.66 74.16
53.33 54.26 54.47 55.96 58.07 59.67 61.78 62.61 62.98 61.50 60.83 57.30 54.77 51.98 51.89 57.16 61.61 61.61 65.98 69.91 67.68 60.88
53.76 51.62 53.48 55.50 56.42 56.38 57.10 58.23 58.89 58.37 58.54 57.30 56.26 52.09 50.68 50.95 55.22 55.91 58.61 60.28 61.07 61.29

GFSNIL_sfc_wetblb_096.txt.gz
Wetbulb
76.97 74.41 75.53 75.45 75.27 77.49 76.18 75.35 77.57 76.72 76.82 77.39 77.55 77.71 78.06 76.40 75.68 76.78 76.19 75.99 77.27 75.94
77.19 76.46 75.38 76.13 76.24 79.12 78.39 76.81 76.85 76.55 76.28 76.40 77.07 77.57 77.97 75.64 76.69 77.52 76.79 76.43 76.69 75.74
75.10 75.31 75.29 76.27 76.43 76.82 77.51 77.89 77.07 76.59 76.40 76.47 76.60 77.80 78.16 76.32 76.98 77.10 76.27 75.58 76.08 76.34
75.22 75.08 75.27 75.07 75.51 76.02 76.74 77.35 77.47 77.20 76.23 76.40 75.90 76.39 77.06 76.91 76.62 76.49 76.39 76.71 76.14 76.17
74.89 75.06 74.76 74.96 75.39 76.52 76.17 77.77 77.46 77.20 77.15 76.95 76.34 76.83 76.39 75.72 75.71 75.95 75.23 75.11 75.79 75.50
72.25 73.94 74.63 75.27 75.56 76.34 76.72 76.49 75.83 76.16 76.00 76.71 76.79 76.27 77.00 77.11 76.45 75.82 75.39 75.39 75.36 75.50
70.15 71.40 72.92 74.41 75.65 75.99 76.67 76.79 76.01 76.24 76.23 76.32 77.11 76.97 76.96 76.71 76.70 76.35 75.80 76.06 75.68 75.27
70.91 71.46 72.25 73.66 74.53 75.79 76.11 76.11 76.91 76.99 77.15 77.44 76.94 76.24 76.51 76.26 76.03 75.66 75.47 75.89 76.28 76.17
71.33 70.94 70.59 71.46 72.60 73.05 73.62 74.43 75.58 75.52 76.07 76.54 75.83 62.48 64.61 70.69 76.14 76.29 75.88 75.92 76.81 76.95
68.05 68.84 67.90 66.02 66.79 69.88 71.27 72.15 72.01 73.20 74.13 69.23 67.65 57.56 59.99 64.07 74.88 76.79 76.70 76.65 76.68 75.90
63.99 65.05 66.12 65.26 65.56 66.87 68.13 71.36 71.79 71.03 71.13 66.03 59.44 54.65 56.84 61.41 73.05 75.62 76.32 76.50 76.46 76.41
58.96 60.26 62.89 64.29 66.17 68.19 69.12 69.33 69.53 70.34 67.01 63.28 58.80 52.41 53.28 62.71 73.23 73.56 74.58 72.65 67.76 70.12
58.45 58.51 58.69 60.32 60.21 63.15 64.23 66.53 67.45 67.19 64.18 57.87 59.69 50.81 51.31 56.79 67.13 68.44 70.39 71.94 68.04 57.97
55.10 55.87 57.09 58.41 59.00 60.79 64.05 64.34 64.27 63.82 63.21 61.09 58.04 53.96 50.22 50.60 53.13 54.18 62.53 66.76 67.02 65.98

GFSNIL_sfc_wetblb_099.txt.gz
Wetbulb
76.55 74.80 74.45 75.71 76.82 74.90 73.28 75.06 78.38 77.39 77.45 77.38 77.95 77.73 77.80 76.25 75.69 78.26 76.13 76.78 79.08 75.95
76.76 76.33 75.70 75.98 76.85 75.99 77.90 76.20 77.24 76.93 76.69 77.17 77.36 77.63 78.06 75.47 76.34 75.88 77.17 77.26 77.38 76.12
76.13 76.29 76.03 76.15 76.03 76.82 74.38 76.65 77.28 76.32 76.53 76.55 76.67 77.07 77.65 77.52 77.76 77.13 76.14 75.65 78.03 77.04
75.68 75.96 76.47 75.57 75.63 76.41 76.75 77.28 76.50 77.00 76.60 76.68 76.66 77.01 77.84 77.87 76.96 76.86 77.10 77.49 76.89 76.12
75.21 75.77 75.38 75.17 75.73 76.37 76.48 76.78 76.78 76.94 76.92 77.10 76.48 77.52 77.37 76.15 76.05 76.23 75.66 75.55 75.83 75.36
74.71 74.86 75.16 75.91 75.71 76.33 76.22 76.70 76.31 76.81 76.68 76.24 77.04 77.18 77.26 77.22 76.74 76.18 76.02 75.70 75.74 75.41
71.08 71.76 72.45 73.25 73.46 73.98 76.92 76.23 76.39 76.66 77.03 76.69 76.75 76.05 76.94 76.67 76.58 76.43 76.07 76.11 76.26 75.82
70.68 71.48 72.06 71.87 73.52 74.26 75.86 75.87 76.39 76.43 76.82 76.84 76.29 73.25 72.38 76.87 76.56 76.77 76.22 76.43 76.34 76.59
72.87 73.54 73.01 73.44 72.97 73.39 74.31 74.61 75.79 75.87 76.27 75.71 68.93 61.45 62.84 68.65 76.49 76.38 76.43 75.67 76.62 77.69
71.63 71.46 71.70 72.24 72.22 70.34 71.78 74.30 73.89 74.31 72.27 69.09 64.83 56.55 58.43 63.30 71.96 75.58 77.13 77.34 77.21 75.70
67.37 67.89 68.57 69.51 69.52 67.33 69.56 71.69 72.73 72.56 70.41 66.62 59.08 53.98 55.63 59.04 70.25 74.56 76.14 75.80 75.88 76.31
64.70 66.08 66.77 66.60 69.20 69.32 70.56 70.91 71.42 71.16 69.06 65.91 59.44 52.20 53.14 60.92 73.27 74.82 74.21 71.85 69.81 73.26
61.01 61.32 63.08 65.11 66.08 67.77 69.05 69.39 69.42 66.49 66.80 59.09 61.61 50.93 51.34 55.94 64.07 69.85 68.20 73.43 65.02 55.43
58.11 58.81 59.95 60.94 61.32 62.26 65.51 67.43 67.62 66.46 65.33 60.50 56.65 52.99 50.61 50.77 59.62 56.73 57.80 58.54 59.24 62.04

GFSNIL_sfc_wetblb_102.txt.gz
Wetbulb
78.54 75.97 75.85 77.13 74.90 71.65 71.67 71.42 74.39 77.29 77.76 78.35 78.30 78.23 78.38 78.03 77.19 77.97 77.37 76.94 77.26 76.96
78.24 78.41 77.81 77.66 79.90 76.52 72.16 71.51 70.44 68.10 76.38 77.40 76.18 77.48 76.73 77.54 77.08 73.37 72.31 74.76 77.47 76.99
76.73 77.55 78.46 78.88 77.61 76.38 70.52 68.35 69.40 69.99 74.37 77.12 76.81 77.85 78.87 77.70 76.44 75.89 73.34 74.87 76.16 76.29
76.46 76.76 76.98 77.71 78.34 78.49 72.22 69.99 69.57 73.61 76.56 75.71 77.75 78.24 77.54 77.72 77.28 75.16 74.77 75.96 75.58 75.00
73.09 74.01 76.09 73.87 71.65 76.56 77.74 76.96 77.62 78.41 76.54 76.98 76.29 76.55 76.58 76.52 76.28 75.62 75.11 75.51 76.51 76.05
75.06 74.61 75.93 75.34 72.23 72.31 75.66 78.02 77.90 78.06 76.06 75.15 76.21 75.56 75.92 76.67 76.09 75.77 76.03 76.32 75.69 75.81
72.17 72.97 72.27 73.35 74.20 74.91 75.34 74.81 74.49 76.96 75.50 75.28 76.74 75.96 75.92 76.12 75.83 76.07 76.48 76.50 77.07 76.61
72.38 71.06 71.19 72.15 71.72 72.80 72.46 73.13 73.79 74.44 75.77 70.42 69.30 66.25 67.79 70.73 73.61 74.31 75.71 76.50 75.82 76.17
72.67 72.70 72.43 72.03 71.58 71.11 71.00 72.02 72.59 72.32 73.45 69.29 65.30 60.17 61.26 64.88 73.47 75.37 74.89 75.59 76.68 77.28
72.16 72.97 72.43 72.45 72.35 71.96 71.13 70.68 70.41 70.92 68.25 61.76 58.27 55.87 57.64 61.15 69.04 74.03 74.89 74.79 75.44 74.66
71.30 70.53 70.62 70.60 70.10 70.10 71.01 69.28 69.84 69.47 67.02 62.91 55.59 53.88 55.62 59.80 67.78 72.34 75.03 74.91 74.51 73.90
67.29 67.24 67.45 68.12 69.52 70.18 69.75 68.09 70.01 70.54 67.63 63.26 55.20 52.39 53.04 60.81 68.09 74.59 73.30 69.57 60.89 66.83
62.87 64.45 65.15 65.61 66.07 68.13 69.94 70.92 68.16 66.84 65.03 60.91 57.19 51.52 51.68 53.58 63.12 64.66 64.26 66.60 61.44 55.00
58.33 60.89 62.45 63.76 64.55 65.33 65.61 69.32 67.66 66.01 63.10 58.60 56.83 52.53 51.07 50.95 57.00 55.65 60.72 61.21 59.80 59.37

GFSNIL_sfc_wetblb_105.txt.gz
Wetbulb
72.42 71.75 71.47 72.19 70.48 70.14 69.60 71.11 71.71 72.26 72.43 72.87 73.24 73.14 72.69 71.91 72.47 72.06 70.71 70.52 71.85 70.36
72.65 71.76 71.69 72.03 71.74 71.89 71.95 72.03 71.33 70.05 68.38 69.91 73.01 73.79 72.82 72.02 70.89 70.37 69.50 66.92 70.90 71.93
72.10 72.47 72.25 71.76 69.65 69.42 69.42 69.53 70.38 68.20 68.41 69.77 73.32 72.61 72.35 72.26 71.85 70.77 67.53 67.12 71.62 70.67
72.23 72.46 71.77 71.73 71.67 70.42 68.90 67.56 66.92 68.96 70.74 72.81 73.29 72.95 72.03 72.00 71.83 71.09 71.29 71.26 71.37 70.79
71.84 69.75 70.93 70.03 70.23 71.06 70.37 70.24 69.82 72.14 73.20 72.75 72.87 72.47 72.63 72.81 72.60 71.33 70.91 71.26 70.50 70.67
68.84 69.76 71.42 70.94 69.44 70.69 72.53 72.21 73.09 72.67 72.32 72.48 72.37 71.88 72.48 72.83 72.46 72.11 72.11 71.60 71.57 71.44
69.30 69.65 70.78 70.92 71.19 70.96 71.19 70.88 71.86 72.58 73.13 72.07 69.74 69.33 69.72 71.20 71.84 71.94 72.72 72.82 72.11 72.15
69.08 68.86 69.14 68.77 68.68 69.22 69.85 70.51 71.98 72.41 69.36 68.30 65.74 63.83 65.05 66.68 69.43 72.44 71.55 72.28 72.65 71.87
70.07 69.28 69.32 69.48 68.97 69.28 69.22 68.94 70.89 69.34 67.02 63.72 60.19 57.48 59.09 61.41 65.00 70.47 72.41 71.61 71.31 71.09
69.67 69.19 69.76 70.27 69.78 68.14 67.38 68.70 69.77 64.42 58.79 54.13 53.23 55.46 57.12 60.50 62.14 67.61 70.10 70.59 70.93 69.80
68.92 68.38 68.03 67.62 67.40 66.77 67.29 67.78 66.03 63.46 60.28 54.34 51.99 54.25 55.58 60.67 64.71 67.35 68.80 65.85 67.85 62.58
66.75 65.34 65.66 64.48 66.44 66.73 67.13 66.77 66.39 64.07 59.62 53.63 50.37 52.76 53.57 59.26 62.59 67.49 62.01 56.75 58.39 55.19
62.39 62.74 61.22 61.48 62.54 62.97 64.55 66.75 63.04 62.09 59.37 55.85 50.14 51.78 51.78 55.27 55.59 57.81 62.49 59.43 55.81 55.17
58.64 60.46 59.98 59.90 60.81 61.02 62.53 64.56 62.91 59.48 56.59 55.35 51.08 49.50 50.83 51.23 49.87 50.37 54.59 56.46 55.17 54.30

GFSNIL_sfc_wetblb_108.txt.gz
Wetbulb
70.60 70.17 69.84 69.01 70.17 70.53 69.43 69.13 70.74 71.27 71.82 71.93 72.00 71.04 71.84 70.56 70.87 70.99 69.58 68.77 69.03 70.62
70.70 70.60 70.69 71.35 70.10 70.31 70.69 71.07 70.48 71.33 69.63 69.01 71.49 71.74 71.60 70.52 69.94 70.08 68.62 66.43 69.93 70.20
71.10 70.90 70.80 70.53 70.28 70.91 71.04 70.52 70.76 69.71 68.26 68.12 69.78 71.69 71.22 71.11 70.88 70.10 69.67 66.00 69.40 69.20
71.67 71.33 70.95 69.93 69.42 69.24 68.47 68.11 68.90 68.02 67.86 69.72 71.44 71.69 71.02 70.69 71.04 70.08 69.66 69.97 69.72 69.85
71.89 71.10 71.10 70.32 70.53 69.40 68.17 67.18 65.94 67.27 69.99 71.71 71.89 71.54 71.20 71.02 72.26 70.69 69.92 69.89 69.97 69.97
70.35 69.45 70.68 69.72 69.31 69.71 70.67 70.82 69.75 71.06 71.15 71.51 71.36 71.05 71.15 71.09 71.21 70.91 71.18 70.79 69.89 70.38
68.94 68.89 70.22 70.40 69.40 69.39 70.27 69.17 69.84 70.55 71.13 69.00 66.91 67.20 67.70 69.50 70.06 71.31 72.02 71.87 71.85 70.87
68.62 69.21 69.07 69.32 69.59 69.42 69.52 69.31 69.58 68.60 67.45 65.56 64.44 63.20 63.36 66.04 67.09 70.35 70.77 71.87 72.03 69.97
67.90 67.47 67.11 68.41 69.37 69.04 68.84 68.26 69.10 67.11 64.21 60.97 58.83 57.59 59.05 60.93 64.15 67.27 70.25 70.68 71.06 67.18
68.53 68.37 68.35 69.05 68.78 67.36 67.11 68.24 64.11 58.96 55.24 52.44 53.65 56.27 58.03 60.82 62.41 66.69 69.23 68.40 69.05 65.51
68.13 67.95 67.40 66.80 65.93 65.39 66.04 65.62 61.25 58.39 54.90 52.03 51.86 55.06 57.72 63.02 65.97 65.80 63.08 64.86 61.63 57.11
67.69 66.78 65.40 64.97 65.14 65.36 65.35 64.20 62.26 58.95 55.14 51.06 49.25 53.36 56.28 61.28 66.28 61.37 56.42 55.97 53.96 52.50
64.85 63.88 62.66 62.71 62.03 62.29 65.42 65.13 62.34 58.39 54.81 52.78 48.99 51.94 53.17 54.12 57.77 60.06 58.96 56.53 55.37 54.74
61.73 61.32 60.56 60.20 59.96 61.36 63.60 61.50 59.41 58.04 54.61 50.69 48.83 48.83 51.00 51.25 49.68 51.60 54.54 54.57 54.06 51.83

GFSNIL_sfc_wetblb_111.txt.gz
Wetbulb
69.66 69.02 68.89 68.52 67.82 68.99 69.21 69.11 69.66 70.47 71.48 70.80 70.48 68.16 70.73 70.20 70.10 70.59 69.16 67.72 68.90 68.76
69.69 69.33 69.29 69.37 69.38 69.26 69.81 69.59 69.85 70.97 70.58 70.87 71.21 71.10 70.71 69.90 69.10 69.19 68.35 66.72 67.70 69.92
69.26 69.71 69.90 70.28 69.49 69.14 69.72 70.23 68.42 69.74 69.15 68.47 68.90 70.49 71.07 70.38 70.10 69.10 68.49 65.71 67.63 68.23
69.90 69.98 70.12 69.84 69.87 69.63 69.34 68.71 68.86 69.23 67.88 66.92 69.15 70.55 70.69 70.28 70.48 69.64 68.57 69.32 69.28 68.83
69.98 70.16 69.88 69.65 69.62 69.04 67.95 67.50 66.45 67.21 66.64 68.94 70.99 70.86 70.79 70.16 71.73 70.37 69.45 69.03 68.64 69.03
70.09 70.18 69.67 68.76 69.25 69.81 68.75 68.15 67.78 68.14 69.20 70.33 70.60 70.31 70.41 70.87 71.19 71.12 70.95 70.43 69.88 69.81
70.02 70.27 70.02 70.38 69.21 68.63 69.19 68.44 69.57 69.95 70.24 69.47 67.48 67.82 67.99 69.14 69.72 70.16 70.93 71.27 71.13 70.93
70.47 70.97 70.22 70.03 69.39 69.62 69.41 69.47 69.27 68.94 67.32 65.74 65.24 63.42 62.90 64.97 66.49 67.73 69.14 71.37 71.65 70.12
69.46 69.41 68.76 68.24 68.45 68.78 68.73 68.82 69.59 67.00 64.75 62.12 62.38 59.27 58.97 61.41 63.82 66.83 69.86 70.12 68.76 67.84
67.77 67.25 67.46 67.77 68.24 68.13 67.93 68.09 64.22 60.38 57.14 54.39 54.02 56.76 58.26 60.46 62.18 66.52 68.96 69.82 69.06 64.19
67.66 67.70 68.04 67.90 66.84 66.08 66.80 63.41 58.21 54.76 53.30 52.16 53.72 56.54 59.71 64.10 65.89 64.96 65.63 64.71 63.85 59.87
67.93 66.66 66.15 64.96 64.38 65.22 64.04 60.18 57.13 54.49 51.90 50.10 50.42 54.32 57.11 63.12 61.68 59.83 58.02 57.56 57.72 54.58
66.58 65.65 64.68 64.12 63.99 64.12 63.55 61.59 58.19 55.16 51.33 51.49 48.15 52.17 52.76 59.26 58.84 54.60 54.89 56.58 54.99 54.71
63.17 63.19 63.14 62.47 63.00 64.42 63.09 59.75 57.10 55.02 51.07 48.06 48.12 49.27 51.58 51.30 52.15 54.47 55.20 54.25 53.10 49.90

GFSNIL_sfc_wetblb_114.txt.gz
Wetbulb
69.87 69.50 69.66 69.98 70.05 70.23 70.55 71.01 71.76 71.62 73.17 72.57 71.74 69.46 70.53 72.33 72.09 72.63 72.15 71.45 72.38 72.15
70.32 70.09 69.87 70.30 70.42 70.23 71.19 71.13 71.29 71.98 72.70 72.57 72.98 72.68 72.74 72.32 71.76 71.94 71.23 70.48 71.02 72.60
69.92 70.80 70.66 71.11 70.84 70.94 70.62 71.01 70.81 71.31 71.41 71.54 71.44 72.51 72.94 72.95 72.54 71.64 70.94 69.10 70.77 71.97
69.95 70.39 70.91 70.91 70.70 70.76 71.35 71.44 70.93 70.45 70.96 69.97 70.27 71.76 72.12 72.20 72.40 71.77 71.59 71.77 71.30 71.94
70.63 70.99 70.81 70.69 70.81 70.42 69.93 69.83 69.94 70.64 70.05 69.19 70.33 72.64 72.54 71.87 72.75 72.01 71.43 71.37 71.41 71.32
70.33 70.51 70.65 70.59 70.65 70.34 69.78 69.86 69.24 68.20 68.51 69.83 72.50 72.68 72.63 72.24 71.73 72.71 72.51 72.68 71.90 71.92
69.57 70.19 69.94 70.08 69.88 69.94 69.68 69.84 70.50 70.73 71.43 71.82 71.34 71.10 70.75 70.59 71.10 71.23 72.09 72.76 72.62 72.66
70.13 70.52 70.24 69.77 69.71 70.40 70.33 69.97 69.50 69.91 69.93 68.75 68.52 66.56 66.02 67.68 68.25 69.22 70.85 71.75 72.75 72.06
69.92 69.25 69.64 69.48 69.32 69.57 69.32 69.10 69.55 68.31 67.12 66.71 65.31 59.15 59.83 61.78 65.13 67.58 69.70 70.94 71.64 68.80
68.74 68.85 68.94 68.65 68.31 68.26 68.24 68.47 68.22 65.82 62.32 59.19 57.68 57.64 58.51 60.91 62.93 66.92 69.07 70.27 68.99 65.69
68.20 67.77 67.61 67.99 68.40 67.99 68.06 66.52 63.21 58.47 56.00 56.18 57.15 56.29 59.34 63.27 66.77 66.78 63.89 64.06 64.02 60.82
67.74 67.68 67.95 67.92 67.45 66.75 65.48 61.47 58.79 57.03 55.63 55.38 54.24 53.64 58.29 63.48 63.26 60.51 58.74 58.15 58.91 57.64
68.17 67.70 66.14 65.89 66.09 66.75 63.76 60.58 57.08 54.62 53.68 52.01 52.79 52.30 53.22 59.95 59.44 56.85 57.15 58.06 57.07 54.44
64.69 65.21 65.12 64.85 65.75 65.75 61.93 59.12 57.15 54.56 52.21 51.82 51.59 51.55 51.31 51.96 58.03 59.66 59.29 57.34 56.26 53.62

GFSNIL_sfc_wetblb_120.txt.gz
Wetbulb
76.25 76.22 74.80 74.87 75.13 74.19 74.20 74.79 76.26 76.55 76.99 77.27 77.68 77.47 77.68 76.23 76.37 76.90 76.61 77.24 77.52 75.49
76.76 76.55 75.36 76.42 77.72 75.66 78.46 77.59 77.44 77.19 76.81 76.61 76.96 77.04 77.52 75.70 76.13 76.99 77.21 76.53 77.11 76.11
75.90 76.67 76.73 76.77 77.22 76.39 76.80 77.47 77.14 77.14 77.21 77.36 77.32 77.61 78.20 76.50 77.21 76.91 76.07 75.37 76.16 76.52
75.34 75.78 76.47 76.09 76.77 77.33 78.15 77.53 77.17 77.53 77.29 77.15 77.12 77.54 77.89 77.47 76.69 76.52 76.41 76.52 76.06 76.21
75.83 75.94 75.31 75.96 76.52 77.52 77.45 77.89 77.51 77.42 77.04 76.63 76.76 77.16 77.05 76.50 76.10 75.97 75.53 75.58 75.82 75.24
75.43 75.43 75.26 75.96 76.65 77.16 77.10 77.15 76.61 76.66 76.44 76.29 76.31 76.44 76.64 76.83 76.21 76.22 75.90 75.69 75.72 75.44
75.11 75.23 75.26 76.32 76.73 76.67 77.04 76.76 76.49 76.63 76.75 76.42 76.05 76.15 76.53 76.32 76.01 75.92 75.87 76.61 75.95 75.76
76.01 76.25 76.64 76.52 76.63 76.69 76.19 75.91 76.08 75.82 75.71 76.15 76.21 75.38 75.88 75.97 75.74 75.63 75.52 76.21 76.32 75.79
76.22 76.30 76.25 75.61 76.03 75.85 74.94 75.05 75.14 74.89 74.83 74.52 74.35 60.50 60.31 64.43 73.29 74.72 74.58 74.64 75.24 75.44
74.94 74.78 75.70 75.32 75.22 73.88 72.53 73.92 73.06 74.13 73.70 71.18 71.42 58.50 58.92 60.41 67.76 72.54 73.53 74.36 74.91 74.13
71.05 72.02 74.09 71.10 71.06 70.70 71.32 71.12 71.35 71.81 70.59 70.37 67.96 56.34 58.72 62.49 66.51 71.32 73.70 72.27 73.37 73.91
70.08 70.95 69.50 68.82 69.16 69.82 69.64 70.04 67.72 64.49 61.74 61.01 59.59 54.31 57.88 63.77 69.92 68.92 65.99 63.49 66.70 65.77
71.12 70.35 68.42 69.03 68.30 68.80 69.05 65.70 62.54 59.76 59.26 57.83 60.61 54.61 54.59 61.51 70.06 69.00 68.93 67.61 63.24 54.34
66.75 66.43 68.26 68.80 67.74 65.79 61.90 59.87 59.01 57.86 57.48 57.64 57.58 56.76 53.36 53.23 67.36 67.56 67.69 67.75 66.53 65.57

GFSNIL_sfc_wetblb_123.txt.gz
Wetbulb
76.44 75.05 74.72 76.04 74.93 74.22 74.41 74.88 77.63 77.59 77.49 77.57 77.95 77.78 78.30 76.66 76.06 78.32 76.15 77.43 78.39 75.75
76.45 75.92 75.18 78.45 76.76 75.67 77.03 75.72 77.09 77.12 77.47 77.47 77.44 77.60 78.22 76.12 76.56 76.99 77.37 76.56 77.79 76.38
75.63 76.44 76.28 78.07 76.91 76.47 78.40 77.71 77.35 77.34 77.12 77.44 77.40 77.85 78.81 77.50 78.46 77.14 76.17 75.42 77.88 77.79
75.54 76.06 76.45 76.20 77.03 77.46 78.18 77.58 77.29 77.98 78.01 77.50 77.16 77.45 78.35 77.36 77.87 77.48 77.07 77.01 76.28 76.51
76.49 76.24 75.53 76.17 76.17 77.77 77.82 78.91 78.63 78.03 77.91 77.67 77.64 77.87 77.45 76.73 76.28 76.17 75.27 75.96 77.33 75.59
75.35 75.57 76.01 76.20 76.49 77.28 77.40 77.30 77.03 77.62 77.54 77.46 77.26 77.18 77.21 77.27 76.66 76.45 75.99 76.30 76.10 76.16
75.00 75.35 75.53 76.48 77.47 76.68 77.20 77.27 76.81 76.98 76.91 76.71 76.42 76.49 76.84 76.79 76.45 76.19 76.00 77.29 76.14 76.27
77.66 76.89 77.20 76.97 77.54 77.66 77.22 76.64 76.60 76.25 76.48 76.70 75.80 74.71 76.34 76.28 76.00 75.83 75.66 76.08 76.10 76.81
78.13 76.61 76.31 76.33 76.47 76.69 76.26 76.17 76.17 76.09 75.46 75.47 75.05 62.53 63.43 66.42 73.87 74.95 75.09 74.69 75.34 76.03
75.59 75.72 75.70 75.81 76.95 76.26 75.94 76.24 75.39 74.89 73.52 72.93 66.99 60.36 59.65 61.29 69.85 73.55 74.86 74.78 75.27 74.88
74.76 74.69 75.04 73.82 74.90 75.17 74.94 74.00 73.26 71.66 70.30 70.96 59.54 57.37 59.41 63.68 70.48 71.57 72.11 70.39 70.45 74.00
72.16 71.35 71.02 72.38 71.22 71.60 72.55 72.65 70.33 67.11 64.91 63.27 59.56 55.23 57.41 62.39 70.48 70.70 67.87 65.12 63.10 67.53
72.31 71.41 71.12 71.97 72.56 72.22 71.15 69.05 63.03 60.73 59.56 59.74 59.29 52.97 53.95 56.46 64.75 68.70 67.86 64.73 61.71 56.26
67.46 67.85 68.19 67.85 67.98 65.06 61.45 59.94 58.29 57.56 57.22 55.42 54.18 52.36 51.09 52.40 58.52 61.73 67.00 68.54 67.47 59.27